[{"header": {"dx": 0.06612293990616946, "dy": 0.0552356325346848, "nx": 98, "ny": 59, "la1": 35.046912555036876, "la2": 31.78801023549047, "lo1": -121.43107172385933, "lo2": -114.95102361305473, "refTime": "2026041100", "parameterCategory": 1, "parameterNumber": 2}, "data": [1.71, 1.69, 1.69, 1.78, 1.78, 2.19, 2.3, 2.3, 2.8, 3.45, 4.12, 4.63, 6.0, 6.31, 6.42, 4.83, 3.36, 3.51, 3.39, 3.53, 4.54, 4.72, 5.14, 5.76, 6.45, 6.7, 6.33, 5.51, 4.87, 4.87, 4.75, 4.75, 4.75, 5.0, 5.06, 1.84, 1.79, 1.34, 1.4, 1.65, 1.56, 1.84, 2.49, 3.77, 4.72, 5.51, 5.72, 6.56, 6.79, 7.38, 8.18, 8.95, 9.8, 10.51, 11.25, 10.9, 10.63, 9.96, 9.56, 9.96, 9.96, 10.28, 10.28, 9.96, 8.85, 8.3, 8.18, 8.66, 10.12, 12.22, 13.88, 15.09, 14.79, 13.64, 13.23, 12.58, 12.74, 12.5, 12.96, 11.51, 9.24, 6.71, 3.79, 1.84, 1.72, 3.0, 4.03, 4.5, 4.34, 3.32, 2.47, 2.47, 2.47, 4.2, 4.96, 5.36, 5.1, 4.5, 1.71, 1.81, 1.69, 1.69, 1.78, 1.67, 2.3, 2.3, 2.28, 2.77, 3.42, 4.75, 5.63, 5.41, 5.69, 3.25, 2.39, 2.42, 3.53, 3.25, 4.9, 4.72, 4.72, 6.16, 5.76, 5.63, 5.86, 5.0, 4.01, 4.17, 4.21, 3.96, 3.96, 4.13, 3.32, 2.51, 2.6, 2.76, 1.73, 1.62, 1.7, 2.28, 3.53, 4.13, 5.2, 5.72, 6.33, 6.33, 7.12, 7.9, 8.66, 9.8, 10.58, 10.82, 10.82, 10.58, 9.89, 9.56, 9.56, 9.56, 9.96, 9.62, 9.62, 8.85, 8.3, 8.18, 8.66, 9.06, 9.8, 11.9, 13.89, 15.47, 15.59, 15.0, 13.29, 12.27, 12.41, 12.5, 12.96, 11.51, 9.24, 6.71, 3.79, 1.84, 1.72, 3.0, 4.03, 4.5, 4.34, 3.32, 2.47, 2.47, 2.47, 4.2, 4.96, 5.36, 5.1, 4.5, 1.71, 1.71, 1.69, 1.69, 1.69, 1.78, 1.67, 1.75, 1.73, 2.25, 2.9, 3.91, 5.0, 4.92, 3.61, 2.39, 1.56, 1.69, 2.71, 3.82, 3.39, 3.77, 4.54, 6.08, 5.8, 4.8, 4.13, 3.95, 3.39, 3.19, 3.23, 3.14, 2.39, 2.37, 1.68, 2.58, 2.57, 3.32, 2.59, 1.63, 1.52, 2.95, 4.01, 4.87, 5.86, 5.86, 6.7, 6.7, 7.51, 8.01, 9.06, 10.58, 10.58, 10.98, 10.19, 10.24, 9.56, 9.17, 9.17, 9.56, 9.62, 9.62, 8.93, 7.51, 7.25, 8.84, 9.7, 9.8, 10.24, 11.28, 13.25, 14.46, 15.59, 15.35, 13.91, 12.09, 11.96, 12.49, 9.83, 6.26, 3.35, 0.96, 0.89, 0.89, 0.78, 2.47, 3.33, 3.77, 3.6, 2.69, 1.75, 1.75, 3.32, 4.34, 5.1, 5.24, 4.26, 3.45, 1.73, 1.71, 1.69, 1.69, 1.69, 1.14, 1.14, 1.12, 1.11, 1.71, 2.35, 3.42, 4.8, 3.78, 2.39, 0.85, 0.79, 0.85, 1.63, 3.16, 3.25, 3.45, 3.87, 4.92, 5.51, 4.9, 3.51, 2.47, 1.76, 2.51, 2.37, 1.61, 1.61, 2.4, 1.28, 1.33, 3.53, 3.92, 3.25, 2.41, 2.41, 3.39, 4.13, 5.63, 5.63, 5.86, 6.45, 7.24, 7.51, 8.3, 9.53, 10.24, 10.63, 10.63, 9.56, 9.56, 9.17, 9.17, 8.85, 8.85, 9.26, 8.93, 7.36, 6.21, 7.36, 8.99, 10.34, 10.81, 10.81, 10.79, 11.88, 13.25, 14.85, 15.14, 14.39, 12.56, 11.36, 8.05, 3.82, -1.84, -0.73, 0.81, 1.75, 0.89, 0.83, 0.89, 1.72, 2.64, 1.84, 1.75, 1.75, 2.54, 3.27, 4.26, 5.24, 3.4, 2.54, 1.67, 1.73, 1.71, 1.71, 1.69, 1.69, 1.14, 1.14, 1.14, 0.56, 1.16, 2.25, 2.77, 3.25, 2.59, 1.62, 0.82, 0.75, 0.82, 0.85, 1.63, 2.42, 2.33, 2.49, 3.77, 3.51, 3.53, 2.52, 2.42, 1.23, 1.69, 0.82, 0.8, -0.0, 0.82, 2.52, 2.6, 3.77, 5.32, 4.4, 3.36, 3.25, 4.25, 5.14, 5.76, 5.76, 6.0, 6.45, 7.24, 8.01, 9.17, 9.56, 9.96, 9.96, 9.96, 9.17, 9.17, 8.85, 8.85, 8.85, 8.93, 8.93, 7.78, 5.86, 5.8, 7.23, 9.66, 11.38, 11.47, 10.86, 10.63, 10.28, 11.64, 13.05, 15.5, 15.47, 13.19, 11.37, 9.36, 4.6, -4.46, -2.28, -0.0, 1.62, 2.47, 0.89, 0.89, 0.83, 1.73, 0.89, 0.89, 1.73, 2.51, 3.55, 4.16, 3.55, 1.65, 0.85, 0.85, 1.73, 1.61, 1.16, 1.71, 1.71, 1.16, 1.16, 0.54, 0.57, 0.56, 1.16, 2.28, 2.49, 1.76, 0.93, -0.0, -0.0, -0.0, 0.82, 1.62, 1.84, 1.69, 2.28, 2.37, 2.52, 1.23, 1.28, 1.2, 2.37, 2.37, 1.68, -0.0, -0.0, -0.0, 1.58, 3.32, 4.96, 5.89, 5.24, 2.69, 2.47, 3.92, 5.0, 5.63, 6.31, 6.31, 6.57, 7.36, 8.12, 9.26, 9.66, 9.27, 8.93, 8.93, 8.85, 8.01, 8.85, 8.85, 8.53, 8.93, 7.9, 6.57, 5.06, 4.98, 7.23, 9.66, 11.59, 11.38, 11.14, 10.51, 9.89, 10.58, 12.26, 14.49, 15.47, 15.03, 12.7, 11.18, 9.97, -1.73, -2.49, -0.0, 1.63, 3.16, 2.59, 0.8, 0.89, 0.83, 0.95, 0.95, 1.84, 2.64, 4.29, 4.29, 2.82, 0.89, -0.0, 0.85, 1.63, 1.73, 1.09, 1.71, 1.71, 1.16, 0.55, 0.55, -0.0, -0.0, -0.0, 1.11, 0.82, 0.82, -0.0, -0.0, -0.0, -0.0, -0.0, 0.74, 0.81, 0.81, 0.82, 0.89, 1.23, 1.22, 1.14, 1.28, 3.47, 3.39, 2.33, -0.0, -0.0, -0.0, 1.55, 3.27, 4.96, 6.3, 5.59, 2.67, 2.58, 3.61, 4.72, 6.7, 7.24, 7.48, 7.48, 7.59, 8.31, 9.08, 9.08, 8.6, 8.93, 8.22, 7.82, 8.12, 8.53, 8.22, 8.22, 8.22, 7.18, 4.8, 3.96, 4.87, 6.4, 9.66, 11.19, 11.29, 10.98, 11.06, 10.86, 10.91, 12.08, 13.75, 15.1, 16.03, 15.1, 13.23, 12.27, 8.95, -0.0, -0.0, 2.44, 4.17, 4.01, 2.17, 0.89, 0.89, 0.96, 0.96, 1.7, 2.98, 4.74, 4.58, 3.4, 1.67, 0.85, 0.81, 1.76, 1.73, 1.18, 1.09, 1.61, 1.09, 0.59, 0.59, -0.0, -0.0, -0.0, -0.0, -0.0, -0.0, -0.0, -0.0, -0.0, -0.0, -0.0, -0.0, -0.0, -0.0, -0.0, -0.0, 0.85, 1.2, 1.2, 2.39, 3.77, 2.42, 1.18, -0.0, -0.0, -0.0, 1.63, 3.33, 3.9, 5.24, 6.01, 4.0, 2.83, 3.7, 5.1, 7.27, 8.22, 8.53, 7.18, 8.31, 7.97, 9.08, 8.38, 8.31, 8.22, 7.48, 7.48, 8.22, 7.9, 7.48, 7.9, 7.59, 5.9, 4.01, 4.1, 4.71, 6.52, 8.72, 10.54, 11.29, 12.09, 12.16, 12.52, 12.47, 12.98, 13.92, 14.55, 15.05, 15.78, 14.4, 12.42, 8.95, 4.4, 1.41, 2.82, 4.32, 5.0, 4.6, 2.26, 0.88, 0.96, 2.2, 2.68, 3.48, 4.29, 5.1, 5.64, 4.4, 2.47, 1.68, 1.76, 1.1, 1.18, 1.18, 1.73, 1.18, 1.1, 0.56, -0.0, -0.0, -0.56, -1.18, -1.33, -0.0, -0.0, -0.0, -0.0, -0.0, -0.0, -0.0, -0.0, -0.0, -0.0, -0.0, -0.0, -0.0, -0.0, 1.4, 1.33, 1.33, -0.0, -0.0, -0.0, 1.4, 2.8, 3.63, 4.43, 4.29, 5.59, 4.96, 5.21, 5.21, 6.3, 7.59, 8.15, 7.27, 8.22, 7.95, 8.42, 8.12, 8.53, 7.59, 7.18, 6.7, 7.18, 7.59, 7.18, 6.7, 7.59, 6.95, 4.4, 3.19, 4.06, 5.48, 7.01, 8.18, 10.43, 12.16, 12.49, 12.87, 13.49, 13.19, 14.15, 13.69, 14.23, 14.75, 14.75, 13.86, 11.05, 6.58, 4.81, 2.87, 3.6, 4.92, 5.77, 6.36, 4.6, 1.99, 1.13, 2.21, 3.6, 3.79, 4.83, 6.7, 7.36, 6.57, 5.14, 3.25, 1.65, 1.2, 1.1, 1.18, 1.73, 1.1, 1.1, 1.2, 0.57, -0.0, -0.57, -1.23, -1.16, -0.0, -0.0, -0.0, -0.0, -1.01, -1.25, -1.32, -0.0, -0.0, -0.0, -0.0, -0.0, -0.0, -0.0, -0.0, -0.0, -0.0, -0.0, -0.0, -0.0, 1.52, 4.02, 3.76, 4.43, 3.91, 5.31, 6.3, 5.89, 6.64, 7.76, 7.76, 7.41, 6.95, 7.27, 8.22, 8.76, 8.01, 7.82, 7.48, 6.7, 6.42, 6.53, 6.18, 5.76, 6.04, 6.53, 5.21, 3.25, 3.32, 4.58, 5.8, 7.12, 8.42, 9.96, 10.82, 12.05, 13.27, 13.43, 13.6, 13.84, 13.83, 13.78, 13.86, 12.94, 9.8, 6.68, 5.1, 5.63, 5.63, 5.02, 5.68, 6.53, 7.09, 7.22, 5.06, 3.6, 3.47, 4.22, 4.56, 5.76, 7.51, 8.01, 7.24, 6.45, 4.87, 1.65, 1.76, 1.1, 1.1, 1.63, 1.63, 1.2, 1.12, 0.53, -0.0, -0.58, -0.58, -0.59, -0.0, -0.0, -0.0, -0.0, -0.59, -1.13, -1.13, -1.7, -1.05, -0.0, -0.0, -0.0, -0.0, -0.0, -0.0, -0.0, -0.0, 1.52, 0.88, 1.05, 1.83, 2.76, 4.02, 5.06, 5.31, 6.01, 7.41, 7.76, 8.05, 8.05, 8.0, 6.87, 6.39, 6.64, 6.83, 6.7, 7.08, 7.51, 7.38, 6.56, 5.72, 6.0, 5.06, 4.34, 4.26, 5.1, 4.2, 3.29, 3.23, 4.93, 7.38, 8.01, 8.93, 9.0, 10.04, 10.66, 11.88, 12.47, 12.79, 13.07, 13.21, 12.88, 10.73, 6.51, 4.12, 4.21, 5.73, 5.81, 6.69, 7.34, 6.44, 7.28, 7.8, 8.53, 8.32, 6.54, 5.86, 6.06, 6.57, 7.12, 7.9, 8.01, 7.24, 6.7, 5.72, 2.32, 1.65, 1.2, 1.2, 1.76, 1.76, 1.12, 1.12, 1.14, -0.0, -0.0, -0.53, -0.59, -0.0, -0.0, 0.57, 1.11, -0.0, -0.0, -1.2, -1.61, -1.61, -0.61, -1.52, -1.32, -2.8, -2.6, -1.16, -0.0, -0.0, 3.22, 2.8, 2.99, 2.76, 3.79, 4.11, 5.43, 6.44, 6.79, 7.81, 8.43, 8.4, 7.82, 7.07, 6.28, 4.95, 4.88, 4.8, 5.0, 5.2, 5.6, 5.55, 5.62, 5.67, 4.76, 4.71, 4.75, 4.34, 2.64, 2.47, 3.23, 4.81, 5.6, 7.12, 8.3, 9.06, 9.17, 8.93, 8.93, 9.8, 11.15, 11.79, 11.3, 11.09, 8.63, 4.11, 1.6, 3.34, 5.81, 6.6, 7.23, 7.23, 8.18, 7.79, 8.01, 8.49, 8.9, 9.56, 9.05, 7.95, 6.79, 6.53, 7.28, 8.01, 7.73, 7.24, 6.7, 5.6, 2.32, 1.8, 1.12, 1.12, 1.65, 1.65, 1.65, 1.67, 1.14, 0.53, -0.0, -0.0, -0.0, -0.0, -0.0, 0.51, 1.27, 1.16, 0.54, -0.57, -1.9, -2.5, -3.14, -3.35, -3.72, -3.72, -3.35, -2.23, -1.13, -0.0, 1.83, 3.47, 4.01, 4.43, 4.11, 4.43, 4.74, 6.11, 7.2, 7.82, 8.4, 8.0, 6.82, 5.06, 4.47, 3.6, 3.61, 3.77, 5.0, 4.72, 3.76, 3.68, 2.87, 3.01, 3.42, 5.56, 7.84, 7.92, 4.34, 2.39, 3.34, 5.67, 6.56, 6.33, 7.25, 7.93, 8.26, 7.82, 6.52, 7.93, 11.37, 12.01, 9.96, 7.81, 4.43, 0.85, 2.45, 4.76, 6.51, 7.84, 7.93, 8.99, 9.3, 10.01, 8.95, 9.48, 10.01, 9.19, 8.58, 7.9, 6.62, 6.62, 7.36, 8.12, 8.12, 7.24, 6.33, 5.6, 2.16, 1.67, 1.8, 1.65, 1.65, 1.65, 1.8, 1.67, 1.14, 0.53, -0.0, -0.0, -0.0, -0.0, 0.55, 1.11, 1.27, 1.6, 1.0, -0.0, -0.71, -2.15, -2.91, -3.53, -3.53, -3.87, -3.6, -2.84, -1.8, -1.11, -0.0, 2.8, 4.29, 4.43, 4.74, 4.29, 4.65, 6.11, 6.82, 7.76, 7.76, 6.8, 5.93, 5.03, 3.8, 2.58, 2.57, 3.87, 4.05, 3.77, 3.77, 2.39, 2.39, 2.39, 3.61, 5.09, 7.69, 10.47, 9.47, 4.17, 3.34, 5.92, 6.1, 7.06, 6.52, 7.23, 6.8, 6.17, 6.8, 7.13, 10.32, 12.96, 10.51, 7.15, 3.72, 1.6, 3.19, 5.38, 8.06, 9.12, 9.77, 9.89, 10.43, 10.81, 10.15, 10.58, 10.29, 9.04, 7.94, 7.52, 6.71, 7.44, 7.85, 8.12, 8.22, 7.24, 6.33, 6.43, 2.36, 1.67, 1.67, 1.67, 1.67, 1.8, 1.67, 1.67, 1.16, 0.59, -0.0, -0.0, -0.0, -0.0, 0.55, 1.11, 1.11, 1.76, 1.84, 1.24, -0.0, -0.53, -1.58, -2.24, -2.68, -3.39, -3.43, -3.16, -2.22, -1.23, -0.0, 1.08, 3.91, 5.37, 4.29, 4.14, 5.31, 6.11, 8.0, 6.7, 6.21, 5.03, 4.14, 3.8, 4.0, 2.33, 2.46, 2.69, 4.0, 4.0, 5.21, 3.8, 3.6, 3.91, 4.75, 5.03, 5.72, 8.53, 10.68, 8.46, 4.06, 4.81, 7.13, 7.36, 7.06, 7.06, 6.8, 6.85, 7.24, 6.98, 8.3, 12.09, 13.23, 10.04, 6.39, 4.34, 4.8, 7.12, 8.95, 10.43, 11.2, 11.25, 11.18, 11.16, 10.73, 11.28, 10.28, 8.6, 7.52, 7.36, 7.36, 7.52, 7.85, 8.22, 7.78, 6.56, 6.43, 6.43, 2.36, 1.84, 1.67, 1.67, 1.67, 1.67, 1.67, 1.84, 1.7, 0.59, -0.0, -0.0, -0.0, 0.59, 1.07, 1.08, 1.19, 1.73, 2.23, 1.58, -0.0, -0.0, -0.0, 0.45, -0.89, -1.24, -2.22, -2.44, -2.22, -1.08, -0.0, 1.08, 2.2, 4.56, 3.91, 3.2, 4.95, 5.77, 6.28, 5.37, 3.72, 3.4, 3.8, 4.0, 3.8, 2.54, 2.54, 2.54, 4.14, 5.31, 5.59, 5.31, 5.31, 5.31, 5.31, 6.28, 6.28, 7.9, 9.42, 7.96, 5.63, 6.97, 6.97, 8.22, 8.22, 7.95, 7.08, 8.85, 7.9, 6.3, 7.18, 11.17, 15.09, 14.39, 10.9, 8.93, 8.12, 8.85, 10.28, 11.28, 11.83, 11.6, 11.5, 10.55, 9.9, 9.03, 10.01, 8.53, 8.42, 8.42, 8.53, 7.9, 7.9, 7.15, 6.09, 5.68, 6.67, 6.67, 2.82, 2.36, 1.84, 1.84, 1.84, 1.84, 1.84, 2.36, 1.7, 1.16, -0.0, -0.0, -0.0, 0.59, 1.16, 0.54, 0.53, 1.67, 2.44, 1.58, -0.0, -0.53, -0.0, 0.57, 0.45, -0.0, -0.55, -0.61, -1.08, -0.55, -0.0, 1.23, 1.73, 2.66, 2.35, 3.2, 2.64, 2.66, 3.2, 2.82, 2.54, 2.51, 3.8, 3.55, 3.6, 3.6, 3.6, 4.14, 5.69, 6.28, 6.63, 6.63, 6.32, 6.64, 6.64, 6.64, 7.21, 8.54, 8.37, 8.22, 7.9, 8.15, 8.37, 8.93, 9.2, 7.81, 7.64, 7.21, 7.9, 6.97, 9.17, 12.08, 17.13, 17.38, 14.46, 12.26, 11.6, 11.9, 12.23, 12.15, 12.04, 11.37, 10.68, 9.4, 9.24, 8.4, 8.38, 8.12, 8.85, 9.26, 8.59, 7.27, 6.79, 6.62, 6.33, 6.21, 7.19, 7.19, 2.84, 2.18, 1.7, 1.7, 1.7, 1.7, 1.7, 2.36, 1.7, 1.16, 0.59, -0.0, -0.0, 0.59, 0.54, 0.54, 0.58, 1.65, 2.18, 1.0, -0.53, -1.14, -0.0, 1.11, 0.54, -0.0, -0.55, -0.0, -0.0, -0.0, -0.0, 1.11, 1.76, 2.44, 2.2, 1.98, 0.88, 1.41, 2.8, 3.0, 3.2, 2.66, 3.0, 4.29, 3.91, 4.14, 5.03, 5.69, 6.28, 7.6, 7.6, 7.6, 6.63, 6.32, 6.32, 6.64, 7.21, 7.56, 7.27, 8.15, 8.15, 9.1, 9.2, 9.63, 9.63, 8.3, 7.21, 6.13, 6.63, 8.15, 12.39, 14.58, 18.39, 19.08, 16.31, 13.87, 13.51, 14.46, 13.75, 12.98, 12.3, 11.18, 9.75, 7.92, 8.06, 8.03, 8.38, 8.31, 9.0, 8.93, 8.6, 7.59, 5.7, 5.77, 6.56, 7.12, 7.28, 7.28, 2.84, 2.4, 2.18, 1.7, 1.7, 1.7, 1.7, 2.18, 2.18, 1.16, 0.54, 0.54, 0.54, 0.61, 0.61, -0.0, -0.0, 1.04, 1.67, 1.11, -0.0, -1.14, -0.0, -0.0, -0.0, -0.0, -0.0, -0.0, -0.0, -0.0, -0.0, 0.59, 1.8, 2.22, 1.76, 1.11, 0.61, 1.49, 3.16, 5.21, 4.11, 4.11, 4.74, 5.36, 5.37, 5.69, 6.28, 6.9, 7.2, 7.6, 7.6, 6.63, 6.01, 5.31, 4.96, 6.01, 7.21, 7.27, 8.15, 8.73, 9.6, 9.6, 10.05, 8.82, 9.06, 8.56, 7.63, 7.12, 7.63, 10.05, 12.94, 15.35, 19.31, 20.01, 17.22, 14.58, 14.17, 15.1, 15.35, 13.72, 10.68, 9.36, 8.42, 8.3, 9.04, 8.68, 9.05, 8.32, 9.04, 8.59, 8.22, 7.08, 5.63, 5.99, 7.25, 7.9, 8.3, 8.3, 2.84, 2.4, 2.4, 2.4, 2.4, 1.88, 1.88, 2.18, 2.18, 1.7, 1.07, 0.54, 0.61, 1.08, 0.55, -0.0, -0.0, -0.0, -0.0, 0.83, -0.0, -0.0, -0.54, -0.0, -0.0, 0.89, 0.89, 0.54, -0.0, -0.0, -0.0, 0.51, 1.13, 2.48, 2.22, 1.58, 1.84, 1.9, 2.68, 3.6, 4.11, 4.6, 4.6, 4.4, 4.55, 6.52, 6.52, 7.2, 7.63, 8.06, 7.2, 6.01, 5.31, 4.71, 5.24, 6.01, 7.9, 7.02, 8.06, 9.6, 9.21, 9.21, 9.63, 9.63, 8.3, 7.82, 7.82, 7.81, 8.43, 9.9, 11.87, 14.64, 18.17, 20.16, 18.35, 15.45, 14.28, 14.3, 13.65, 12.3, 10.55, 9.65, 9.04, 9.04, 10.04, 9.45, 8.88, 7.95, 7.95, 7.27, 7.48, 7.51, 7.12, 7.38, 7.67, 8.95, 9.06, 9.06, 2.84, 2.84, 2.4, 2.2, 2.2, 1.73, 1.73, 2.2, 2.4, 1.73, 1.19, 1.19, 1.08, 1.08, 0.57, -0.0, -0.0, -0.0, -0.0, -0.0, 0.96, 0.55, -0.0, -0.0, -0.0, 0.57, 1.23, 0.55, 0.55, -0.0, -0.0, -0.0, 0.51, 1.6, 2.22, 2.48, 2.23, 2.53, 3.07, 3.6, 4.11, 4.11, 4.11, 4.11, 4.11, 6.64, 7.06, 7.63, 7.63, 7.63, 6.28, 5.03, 3.8, 5.31, 6.32, 6.01, 7.06, 7.33, 9.1, 8.54, 9.04, 9.04, 8.63, 8.63, 7.44, 7.41, 7.35, 7.59, 9.0, 10.04, 10.87, 13.23, 16.96, 18.7, 16.54, 13.84, 11.42, 11.62, 11.36, 11.6, 11.28, 11.28, 10.66, 10.0, 10.0, 9.9, 8.43, 7.31, 7.22, 6.88, 6.84, 7.38, 8.18, 8.01, 8.73, 9.48, 9.53, 9.53, 3.49, 2.84, 2.2, 2.2, 2.2, 2.2, 1.73, 2.2, 2.2, 1.73, 1.73, 1.08, 1.23, 1.76, 1.11, -0.0, -0.0, -0.0, -0.0, 0.59, 1.13, 1.13, 0.57, -0.0, -0.0, 0.57, 0.57, 0.57, 0.55, -0.0, -0.0, -0.0, 0.59, 1.13, 1.8, 2.23, 2.23, 2.84, 3.14, 3.35, 4.11, 4.11, 3.88, 4.11, 4.11, 4.11, 7.21, 7.21, 7.21, 6.52, 5.03, 3.6, 5.03, 5.03, 6.01, 6.32, 6.32, 7.35, 8.37, 8.54, 7.82, 8.3, 7.76, 7.2, 6.73, 6.64, 6.95, 6.83, 7.48, 8.54, 9.8, 13.01, 16.39, 17.39, 6.2, 6.26, 7.56, 8.19, 9.05, 10.73, 12.27, 12.64, 11.83, 11.5, 10.15, 9.42, 8.38, 7.36, 7.36, 6.44, 7.09, 8.01, 8.73, 8.73, 9.17, 9.53, 9.96, 9.96, 3.49, 3.49, 3.12, 2.44, 2.2, 2.2, 2.2, 2.2, 2.44, 1.76, 1.57, 1.76, 1.76, 1.76, 1.11, 0.57, -0.0, -0.0, -0.0, 0.59, 1.13, 1.13, 0.57, 0.57, 0.55, 0.55, 0.55, 0.55, 0.55, 0.55, -0.0, -0.0, 0.59, 1.13, 1.84, 2.23, 2.51, 2.84, 3.35, 3.72, 3.72, 3.88, 3.88, 3.88, 4.11, 4.11, 6.64, 6.64, 5.72, 5.37, 4.14, 5.03, 5.03, 5.69, 5.03, 5.31, 6.01, 6.95, 8.37, 7.2, 6.82, 7.2, 6.79, 6.01, 6.32, 6.64, 6.53, 6.04, 6.42, 7.08, 8.54, 10.69, 18.98, 14.1, 6.64, 5.43, 7.85, 9.2, 9.74, 10.79, 11.72, 12.98, 12.45, 11.5, 10.28, 8.93, 8.01, 8.3, 9.06, 8.76, 7.09, 8.09, 9.17, 9.53, 9.56, 9.84, 9.57, 9.57, 3.49, 3.49, 2.86, 2.86, 2.44, 2.44, 2.44, 2.44, 2.22, 1.76, 1.76, 1.76, 1.76, 1.58, 1.11, 0.57, 0.57, 0.51, 0.59, 0.59, 0.59, 0.57, 0.57, 0.57, 0.57, 0.57, 0.55, 1.23, 1.11, 0.57, 0.63, 0.57, 0.59, 0.59, 1.13, 1.84, 2.23, 2.84, 3.35, 3.72, 3.72, 3.72, 3.88, 3.88, 4.11, 3.87, 6.58, 6.64, 5.37, 5.03, 5.03, 5.37, 5.37, 5.37, 5.37, 5.03, 5.37, 6.01, 7.9, 7.56, 5.77, 6.11, 6.01, 6.73, 6.73, 6.64, 6.04, 6.24, 6.04, 6.53, 7.35, 15.58, 21.12, 20.05, 15.16, 11.13, 10.91, 10.96, 10.96, 10.26, 11.15, 11.99, 11.71, 10.94, 9.62, 8.76, 8.66, 8.66, 9.06, 9.48, 8.42, 8.9, 9.21, 9.57, 9.57, 9.57, 9.57, 9.57, 3.49, 3.49, 3.2, 2.86, 2.86, 2.44, 2.22, 2.22, 2.22, 2.22, 1.8, 1.8, 2.23, 1.8, 1.11, 1.11, 1.11, 0.59, 0.59, 0.51, 0.57, 0.57, 1.11, 0.59, -0.0, -0.0, -0.0, 0.57, 1.11, 1.11, 0.57, 0.57, 0.57, 0.59, 1.13, 2.23, 2.51, 2.84, 3.43, 3.72, 3.72, 3.72, 3.88, 3.88, 4.11, 4.44, 4.89, 5.7, 5.81, 5.47, 4.55, 6.52, 5.72, 5.06, 5.06, 5.37, 5.37, 5.49, 6.32, 6.95, 6.64, 6.11, 6.01, 6.73, 6.73, 6.18, 5.64, 5.9, 6.83, 7.81, 9.75, 13.01, 19.39, 20.15, 18.55, 13.99, 10.63, 9.83, 10.73, 9.36, 9.36, 9.81, 9.34, 8.57, 9.06, 8.66, 9.06, 8.76, 9.48, 9.83, 11.28, 9.21, 9.56, 9.67, 9.19, 9.19, 9.56, 9.56, 3.79, 3.79, 3.48, 3.15, 2.86, 2.6, 2.22, 2.22, 2.22, 2.48, 2.23, 2.23, 2.23, 2.23, 1.58, 1.11, 1.11, 1.27, 0.51, 0.57, 0.57, 1.11, 1.13, 1.13, -0.0, -0.0, -0.0, 0.57, 1.11, 1.11, 0.57, 0.57, 0.57, 0.57, 1.27, 2.23, 2.58, 3.16, 3.43, 3.43, 3.43, 3.43, 3.88, 4.27, 4.6, 4.89, 5.36, 5.81, 5.34, 4.6, 4.11, 3.72, 5.36, 4.02, 5.06, 5.37, 5.72, 5.72, 5.69, 6.32, 7.21, 7.21, 6.44, 6.79, 6.01, 4.96, 5.06, 5.9, 7.35, 8.05, 8.82, 11.99, 14.58, 19.51, 20.62, 17.08, 11.99, 8.49, 7.1, 6.71, 6.94, 7.07, 7.59, 7.8, 8.44, 9.8, 9.48, 9.48, 9.89, 10.19, 11.28, 10.15, 9.52, 8.93, 8.93, 9.04, 9.19, 9.19, 3.48, 3.48, 3.48, 3.48, 3.15, 2.86, 2.22, 2.22, 2.48, 2.86, 2.48, 2.58, 2.58, 2.23, 1.58, 1.58, 1.58, 1.8, 1.11, 0.57, 0.57, 1.27, 1.13, 1.13, 0.59, -0.0, -0.0, -0.0, 0.59, 0.59, 0.57, -0.0, 0.57, 1.27, 1.13, 1.8, 2.58, 2.86, 3.48, 3.48, 3.48, 3.48, 3.73, 4.8, 5.09, 5.33, 5.36, 4.92, 4.02, 3.53, 3.32, 3.07, 3.14, 2.84, 4.11, 4.89, 5.72, 5.72, 4.74, 5.06, 7.44, 7.2, 7.81, 6.11, 6.01, 4.96, 5.21, 7.35, 8.06, 8.95, 9.24, 10.45, 12.58, 16.19, 18.29, 19.09, 15.99, 8.91, 5.29, 5.2, 5.69, 6.95, 7.52, 7.85, 8.49, 9.48, 10.51, 10.58, 10.63, 10.66, 10.73, 11.3, 10.04, 9.05, 8.55, 9.14, 9.52, 9.52, 3.73, 3.73, 3.48, 3.48, 2.86, 2.86, 2.86, 2.48, 2.48, 2.86, 2.86, 3.16, 2.86, 2.23, 1.58, 1.76, 1.76, 1.58, 1.11, 1.11, 1.27, 1.13, 1.6, 1.13, 0.51, -0.0, -0.0, 0.59, 0.51, -0.0, -0.0, -0.0, 0.57, 1.27, 1.13, 1.84, 2.51, 3.16, 3.16, 3.15, 3.15, 3.48, 3.48, 4.07, 4.65, 3.88, 1.79, 2.63, 2.24, 2.12, 2.5, 2.79, 2.84, 2.79, 3.07, 4.6, 6.0, 5.36, 4.43, 5.15, 6.21, 7.35, 7.76, 6.79, 5.1, 5.72, 7.06, 7.44, 8.4, 9.75, 9.97, 10.25, 10.7, 12.27, 15.35, 18.32, 19.15, 13.64, 8.4, 6.82, 7.41, 4.94, 5.01, 7.9, 8.53, 9.48, 10.47, 11.9, 11.88, 11.6, 11.2, 11.2, 11.02, 9.14, 9.45, 9.45, 9.45, 9.45, 3.73, 3.73, 3.48, 3.48, 3.16, 2.86, 2.86, 2.86, 2.86, 2.86, 2.86, 3.43, 2.86, 2.23, 1.58, 1.76, 1.76, 1.76, 1.76, 1.11, 1.8, 1.6, 1.6, 1.13, 0.57, 0.59, 0.59, 0.59, 0.61, -0.0, -0.0, -0.0, 0.57, 1.27, 1.8, 1.6, 2.51, 3.16, 2.86, 2.86, 2.86, 2.86, 2.86, 3.63, 4.29, 3.15, 0.89, 0.0, 0.45, 1.26, 2.23, 2.86, 3.16, 2.84, 3.07, 3.07, 5.6, 5.01, 4.54, 4.89, 6.16, 7.12, 7.2, 6.45, 5.89, 6.64, 7.41, 7.42, 8.06, 9.24, 10.14, 10.7, 10.28, 10.73, 12.96, 16.52, 18.35, 16.71, 13.35, 10.85, 9.24, 5.2, 4.68, 5.41, 8.85, 10.19, 11.37, 12.79, 13.11, 12.98, 12.04, 12.3, 11.72, 10.4, 10.0, 9.86, 10.1, 10.1, 4.0, 4.0, 4.0, 3.78, 3.16, 2.86, 2.86, 2.86, 2.86, 2.86, 2.86, 3.43, 3.43, 2.58, 1.8, 1.58, 1.76, 2.22, 1.76, 1.8, 1.6, 1.84, 1.13, 1.27, 1.27, 1.13, 0.59, 1.13, 0.61, -0.0, -0.0, -0.0, 0.59, 1.13, 1.6, 1.8, 2.51, 2.58, 2.86, 2.86, 2.86, 3.16, 2.84, 2.51, 2.86, 4.43, 4.0, 1.34, 2.23, 2.84, 3.22, 3.49, 3.48, 3.43, 3.35, 3.2, 3.39, 3.6, 4.6, 4.6, 6.02, 6.94, 6.8, 6.11, 6.39, 7.15, 7.81, 8.93, 7.12, 7.55, 8.9, 9.97, 11.36, 12.04, 12.49, 14.28, 15.12, 15.35, 15.24, 13.23, 10.01, 5.2, 5.24, 6.28, 7.17, 11.37, 12.4, 13.15, 13.83, 13.56, 13.09, 13.01, 12.18, 11.79, 11.03, 10.6, 10.6, 10.6, 4.0, 4.0, 4.0, 3.78, 3.16, 2.86, 2.86, 2.86, 2.86, 2.86, 3.16, 3.43, 3.43, 2.84, 1.8, 1.8, 1.58, 2.22, 2.22, 2.23, 2.23, 1.84, 1.13, 1.13, 1.27, 1.13, 1.13, 1.13, 0.61, -0.0, -0.0, -0.0, 0.59, 0.59, 1.13, 1.8, 2.23, 2.23, 2.48, 2.86, 2.86, 3.16, 2.84, 2.53, 2.5, 4.57, 5.6, 4.55, 4.71, 4.12, 4.11, 4.07, 4.0, 3.78, 3.88, 4.11, 3.82, 3.39, 3.09, 4.82, 5.75, 6.51, 6.8, 6.82, 7.2, 7.2, 7.2, 8.54, 7.81, 7.63, 6.94, 8.72, 11.09, 13.72, 14.28, 13.41, 12.96, 12.74, 13.91, 14.58, 12.4, 10.09, 6.7, 7.23, 8.51, 9.27, 10.04, 14.15, 13.79, 13.78, 13.34, 12.88, 12.88, 12.43, 11.71, 11.28, 10.96, 10.96, 4.0, 4.0, 4.0, 3.78, 3.43, 2.86, 2.86, 2.86, 2.86, 3.16, 3.16, 3.43, 3.64, 2.84, 1.84, 1.6, 1.8, 2.23, 2.23, 2.23, 2.23, 1.84, 1.13, 1.13, 1.13, 1.13, 1.13, 1.13, 0.88, -0.0, -0.0, -0.0, 0.51, 0.51, 1.33, 1.6, 2.23, 2.23, 2.48, 2.86, 2.86, 3.16, 3.14, 2.79, 2.91, 3.53, 4.6, 5.08, 4.65, 4.07, 3.73, 4.0, 4.0, 4.0, 4.27, 3.88, 4.11, 3.82, 3.58, 3.58, 5.81, 6.45, 7.12, 7.21, 7.63, 7.42, 7.37, 8.17, 9.46, 9.46, 7.76, 8.3, 10.62, 14.53, 16.69, 15.18, 12.04, 11.36, 13.01, 13.84, 13.6, 12.13, 11.88, 8.48, 9.11, 9.77, 10.27, 10.28, 13.86, 13.41, 12.96, 12.96, 12.96, 12.52, 11.99, 11.53, 11.09, 11.09, 4.0, 4.0, 4.0, 3.43, 3.43, 2.86, 2.86, 2.86, 3.16, 3.16, 3.43, 3.43, 4.0, 3.88, 2.23, 1.33, 1.84, 2.23, 2.53, 2.53, 1.84, 1.84, 1.13, 1.13, 1.13, 1.13, 1.13, 0.59, 0.59, 0.88, 0.59, 0.59, 0.51, 0.61, 1.16, 1.6, 1.8, 1.8, 2.23, 2.48, 2.86, 3.16, 3.14, 3.35, 3.2, 3.87, 3.87, 4.11, 3.88, 3.72, 3.43, 3.43, 3.43, 3.88, 4.27, 4.52, 4.6, 4.3, 3.98, 4.02, 4.02, 6.45, 7.63, 6.7, 7.12, 7.42, 7.42, 7.55, 9.29, 9.54, 8.72, 8.72, 9.7, 13.32, 17.72, 17.15, 13.18, 11.8, 12.66, 14.31, 14.13, 13.21, 13.09, 12.79, 8.92, 9.39, 9.83, 10.22, 13.76, 12.86, 12.42, 11.99, 12.43, 12.5, 12.05, 12.07, 11.18, 11.18, 4.27, 4.27, 4.0, 3.43, 3.43, 3.16, 2.86, 3.16, 3.16, 3.16, 3.43, 4.0, 4.27, 4.27, 2.23, 1.84, 1.84, 2.23, 2.53, 2.53, 1.61, 1.13, 1.13, 1.13, 1.13, 1.13, 1.13, 0.59, 0.59, 0.59, 0.59, 0.59, 0.51, 0.61, 1.16, 1.33, 1.6, 1.8, 1.8, 2.23, 2.86, 3.16, 3.43, 3.72, 3.82, 3.53, 3.53, 3.39, 3.07, 2.79, 3.14, 3.14, 3.72, 3.88, 3.88, 4.52, 4.6, 4.77, 4.44, 4.02, 6.71, 6.58, 6.64, 7.06, 6.57, 6.7, 7.12, 7.21, 8.6, 9.54, 9.24, 10.41, 10.66, 12.07, 16.01, 17.39, 14.92, 13.49, 13.25, 14.15, 14.15, 13.25, 12.88, 12.43, 12.5, 8.49, 8.94, 8.87, 12.43, 11.98, 11.52, 11.52, 11.09, 11.53, 11.6, 11.6, 11.18, 11.18, 3.88, 3.88, 3.88, 3.43, 3.43, 3.43, 3.16, 3.43, 3.43, 3.43, 3.43, 4.0, 4.4, 4.4, 3.72, 2.23, 2.23, 2.23, 2.53, 2.53, 1.61, 1.13, 1.13, 1.13, 1.13, 1.13, 1.13, 0.59, 0.59, 0.59, 0.59, 0.51, 0.51, 0.61, 1.16, 1.33, 1.6, 1.6, 1.6, 1.8, 2.23, 2.86, 3.48, 3.88, 3.97, 3.13, 2.24, 2.12, 1.9, 2.21, 2.53, 3.14, 3.14, 3.72, 4.11, 4.11, 4.6, 4.77, 4.88, 4.47, 4.02, 6.58, 6.64, 7.06, 7.21, 7.63, 7.12, 7.63, 8.14, 9.06, 9.33, 10.91, 11.57, 12.04, 13.76, 15.56, 16.03, 15.35, 14.55, 13.39, 12.5, 12.05, 11.53, 11.53, 11.53, 7.58, 8.03, 12.07, 11.62, 11.18, 11.18, 10.73, 10.73, 10.73, 10.7, 10.7, 10.73, 10.73, 3.88, 3.88, 3.88, 3.43, 3.43, 3.43, 3.43, 3.43, 3.43, 3.43, 3.43, 4.0, 4.4, 4.4, 3.88, 2.84, 2.23, 2.51, 2.23, 2.23, 1.84, 1.13, 1.13, 1.13, 1.13, 1.13, 1.13, 1.13, 0.59, 0.59, 0.51, 0.51, 0.61, 0.61, 1.16, 1.16, 1.13, 1.13, 1.13, 1.6, 2.51, 2.86, 3.48, 3.88, 2.63, 1.34, 0.89, 0.95, 1.24, 1.61, 1.84, 2.23, 3.14, 3.35, 4.11, 4.11, 4.6, 4.77, 4.77, 4.44, 4.02, 3.98, 6.58, 6.02, 6.94, 8.17, 7.42, 8.33, 8.77, 8.77, 10.41, 9.97, 12.75, 12.41, 12.42, 13.49, 14.68, 16.03, 15.84, 13.56, 11.42, 10.18, 10.05, 10.49, 10.96, 11.42, 11.84, 11.4, 11.4, 11.4, 11.4, 11.4, 11.06, 11.06, 10.63, 10.63, 10.63, 10.63, 3.88, 3.88, 3.88, 3.64, 3.43, 3.43, 3.43, 3.43, 3.43, 3.43, 3.78, 4.0, 4.4, 4.6, 3.88, 3.43, 2.58, 2.84, 2.84, 2.23, 1.6, 1.13, 1.13, 1.13, 1.13, 1.33, 1.33, 1.13, 0.59, 0.59, 0.51, 0.51, 0.61, 0.61, 1.16, 1.13, 1.13, 1.13, 1.13, 1.33, 1.84, 2.51, 2.86, 4.11, 1.58, 0.0, 0.0, -0.0, 0.61, 1.13, 1.84, 2.23, 3.14, 3.14, 3.6, 4.11, 4.19, 4.77, 4.88, 4.44, 4.02, 4.02, 6.71, 6.2, 7.1, 8.41, 7.55, 8.01, 8.45, 8.45, 9.24, 10.18, 12.94, 13.44, 11.96, 11.51, 12.58, 14.92, 16.27, 14.35, 12.22, 10.6, 10.32, 10.32, 10.8, 11.52, 12.18, 11.71, 12.14, 11.86, 11.86, 11.98, 11.96, 11.6, 11.59, 11.18, 10.73, 10.63, 3.88, 3.88, 3.88, 3.88, 3.43, 3.43, 3.43, 3.43, 3.43, 3.43, 4.0, 4.4, 4.4, 4.27, 3.88, 3.43, 3.16, 2.84, 2.84, 2.23, 1.6, 1.6, 1.13, 1.13, 1.33, 1.16, 1.16, 0.99, 0.59, 0.51, 0.51, 0.51, 0.61, 1.16, 0.99, 1.13, 1.13, 1.13, 1.13, 1.13, 1.84, 1.84, 1.84, 2.76, 2.53, 1.34, 0.89, 0.53, 1.11, 1.58, 2.23, 2.51, 3.14, 3.14, 3.6, 3.7, 4.11, 4.77, 4.88, 4.44, 4.02, 4.02, 6.26, 6.2, 7.1, 7.94, 7.97, 7.55, 8.33, 8.33, 8.56, 10.05, 12.04, 13.72, 13.49, 11.14, 10.73, 13.32, 14.47, 14.13, 12.92, 11.72, 11.03, 10.52, 11.03, 12.01, 12.66, 12.77, 12.74, 12.42, 12.49, 12.49, 12.07, 12.07, 11.62, 11.18, 11.15, 10.73, 4.11, 4.11, 3.88, 3.88, 3.43, 3.43, 3.43, 3.43, 3.43, 3.43, 4.27, 4.4, 4.4, 4.27, 3.88, 3.43, 3.43, 2.84, 2.23, 2.23, 1.84, 1.6, 1.13, 1.13, 1.33, 1.16, 1.16, 0.99, 0.51, 0.51, 0.51, 0.51, 1.16, 1.16, 0.99, 1.13, 1.13, 1.13, 1.13, 1.13, 1.16, 1.88, 1.2, 1.61, 3.79, 3.2, 2.79, 2.22, 2.2, 2.22, 2.51, 2.84, 3.14, 3.45, 3.6, 3.6, 4.3, 4.77, 4.88, 4.44, 4.02, 4.02, 4.02, 6.71, 7.06, 7.5, 7.1, 7.85, 8.14, 8.56, 8.3, 8.82, 11.45, 13.44, 14.03, 11.18, 9.83, 10.73, 11.96, 12.44, 12.4, 12.4, 11.72, 11.52, 11.52, 12.66, 13.12, 13.33, 12.94, 12.96, 12.52, 12.52, 12.52, 12.04, 12.04, 11.6, 11.08, 11.15, 4.11, 4.11, 3.88, 3.88, 3.43, 3.43, 3.43, 3.43, 3.43, 3.88, 4.27, 4.4, 4.4, 3.88, 3.88, 3.72, 3.09, 2.84, 2.53, 1.61, 1.84, 1.6, 1.6, 1.33, 1.33, 1.16, 1.16, 1.13, 0.59, 0.51, 0.51, 1.16, 1.16, 1.16, 1.16, 1.13, 1.13, 1.13, 1.13, 1.13, 1.61, 1.88, 1.2, 1.24, 1.9, 4.6, 3.73, 3.49, 3.48, 2.86, 2.84, 3.14, 3.07, 3.6, 3.6, 3.82, 3.87, 4.77, 4.88, 4.44, 4.02, 3.58, 5.81, 6.26, 7.01, 7.5, 7.42, 8.41, 7.63, 7.76, 8.0, 8.72, 10.41, 11.56, 13.43, 13.59, 11.37, 9.97, 10.41, 11.09, 12.66, 13.84, 13.15, 12.44, 12.18, 13.23, 13.78, 13.84, 13.41, 12.96, 12.52, 12.49, 12.42, 12.41, 11.96, 11.51, 11.06, 11.06, 4.11, 4.11, 3.88, 3.88, 3.43, 3.43, 3.43, 3.43, 3.72, 3.88, 4.27, 4.6, 4.6, 4.19, 4.11, 3.35, 3.35, 3.14, 3.14, 1.61, 1.13, 1.6, 1.6, 1.6, 1.13, 1.13, 1.13, 1.13, 0.59, 0.51, 1.16, 1.16, 1.16, 1.16, 1.16, 0.59, 0.59, 0.59, 1.13, 1.33, 1.61, 1.88, 1.61, 1.58, 1.86, 2.91, 3.72, 3.43, 3.43, 3.14, 2.79, 3.07, 3.07, 3.2, 3.2, 3.82, 3.87, 4.34, 4.88, 4.44, 4.47, 4.02, 4.02, 6.71, 7.01, 7.06, 7.63, 7.63, 6.8, 7.42, 7.82, 8.3, 9.97, 9.97, 12.42, 14.03, 13.99, 12.79, 11.2, 11.6, 13.07, 14.84, 14.56, 13.09, 12.79, 13.32, 13.39, 13.41, 13.41, 12.96, 12.5, 12.42, 12.3, 12.27, 11.51, 11.06, 11.06, 11.06, 4.11, 4.11, 3.88, 3.88, 3.72, 3.43, 3.43, 3.72, 3.88, 3.88, 4.6, 4.6, 4.6, 4.34, 3.7, 3.35, 3.14, 3.35, 3.14, 1.6, 1.27, 1.8, 1.8, 1.6, 1.13, 1.13, 1.13, 1.13, 1.13, 1.13, 1.16, 1.16, 1.16, 1.16, 0.99, 0.59, 0.59, 0.59, 1.13, 1.16, 1.61, 1.88, 1.61, 1.9, 2.4, 2.8, 3.07, 3.07, 2.79, 2.79, 3.07, 3.07, 3.07, 3.32, 3.39, 3.82, 3.87, 4.44, 4.44, 4.44, 4.47, 4.02, 4.02, 6.71, 6.58, 6.64, 6.9, 7.6, 6.44, 7.42, 7.76, 8.33, 8.8, 9.97, 10.89, 12.3, 14.3, 14.46, 13.25, 12.79, 13.75, 15.04, 15.04, 13.56, 12.88, 12.94, 13.41, 13.41, 13.41, 12.94, 12.42, 12.3, 11.86, 10.93, 11.36, 10.25, 10.25, 10.25, 4.11, 4.11, 3.88, 3.88, 3.72, 3.72, 3.35, 3.72, 3.88, 3.88, 4.6, 4.6, 4.77, 4.34, 3.6, 3.35, 2.84, 3.35, 2.84, 1.11, 1.58, 1.58, 1.8, 1.8, 1.6, 1.13, 1.13, 1.13, 1.13, 1.13, 1.33, 1.16, 1.16, 1.16, 0.59, 0.59, 0.59, 0.59, 1.33, 1.16, 1.61, 1.88, 1.88, 1.88, 2.15, 2.5, 2.5, 3.07, 3.07, 3.07, 3.07, 3.07, 2.91, 3.32, 3.39, 3.82, 3.98, 4.44, 4.44, 4.44, 4.47, 4.02, 4.02, 4.47, 6.58, 6.64, 7.06, 6.7, 6.8, 7.12, 8.17, 7.85, 8.77, 9.7, 10.45, 11.37, 12.98, 14.16, 13.83, 13.25, 14.39, 15.46, 15.54, 13.83, 12.35, 12.5, 12.96, 13.41, 12.94, 12.49, 12.92, 10.02, 10.45, 10.68, 10.43, 8.8, 8.8, 8.8, 4.11, 4.11, 4.11, 3.88, 3.72, 3.35, 3.35, 3.35, 4.11, 4.11, 4.6, 4.77, 4.77, 4.3, 3.6, 2.84, 3.43, 3.43, 2.86, 1.76, 1.76, 1.58, 1.8, 1.8, 1.8, 1.6, 1.13, 1.13, 1.13, 1.13, 1.13, 1.16, 1.33, 1.13, 0.59, 0.59, 0.59, 0.59, 1.16, 1.16, 1.61, 1.88, 1.88, 1.88, 2.21, 2.5, 2.21, 2.53, 3.07, 3.07, 3.07, 2.68, 2.91, 2.91, 3.32, 3.53, 3.98, 4.44, 4.44, 4.47, 4.47, 4.47, 4.02, 4.02, 4.47, 7.01, 7.01, 6.65, 7.55, 7.55, 8.0, 8.45, 8.77, 9.54, 10.25, 11.11, 12.3, 12.98, 12.79, 12.47, 13.49, 16.39, 16.85, 14.84, 12.66, 11.99, 12.52, 12.96, 12.49, 12.47, 9.76, 8.56, 8.95, 9.03, 8.14, 6.71, 6.71, 6.71, 4.11, 4.11, 4.11, 3.88, 4.11, 3.6, 3.6, 3.6, 3.7, 4.11, 4.6, 4.8, 4.88, 3.87, 3.35, 3.16, 3.43, 3.43, 2.48, 1.76, 1.76, 2.23, 2.23, 1.8, 1.8, 1.8, 1.27, 1.13, 1.13, 1.13, 1.13, 1.13, 1.13, 0.59, 0.59, 0.59, 0.59, 1.13, 1.16, 1.16, 1.61, 1.61, 1.88, 1.88, 2.21, 2.21, 2.21, 2.53, 3.07, 3.07, 3.07, 2.68, 2.91, 2.91, 3.53, 3.53, 3.98, 4.43, 4.47, 4.47, 4.47, 4.47, 4.02, 4.02, 4.02, 6.71, 7.15, 7.15, 7.5, 7.55, 8.0, 8.33, 8.8, 9.54, 10.41, 10.68, 11.61, 12.3, 12.15, 11.83, 12.86, 15.03, 17.03, 16.53, 14.35, 12.33, 11.6, 11.18, 11.18, 8.9, 8.01, 8.14, 8.3, 6.98, 6.26, 5.75, 5.75, 5.75, 4.11, 4.11, 4.11, 4.11, 4.11, 3.7, 3.6, 3.6, 3.7, 4.11, 4.77, 4.89, 4.44, 3.6, 2.84, 3.43, 3.43, 2.86, 2.22, 1.76, 1.58, 2.23, 2.23, 1.8, 1.8, 1.8, 1.8, 1.27, 1.13, 1.13, 1.13, 1.13, 1.13, 0.59, 0.59, 0.59, 0.59, 1.13, 1.16, 1.16, 1.61, 1.61, 1.61, 1.88, 2.21, 2.21, 2.21, 2.53, 3.07, 2.68, 2.68, 2.68, 2.91, 2.91, 3.53, 3.53, 3.98, 4.02, 4.47, 4.47, 4.47, 4.02, 4.02, 3.58, 3.58, 6.26, 7.01, 7.01, 7.5, 7.42, 8.33, 8.33, 9.24, 9.7, 9.97, 10.45, 11.11, 11.37, 11.75, 11.6, 11.83, 13.83, 15.86, 16.8, 15.99, 12.44, 9.58, 8.82, 8.19, 7.56, 7.6, 8.0, 7.6, 6.64, 5.2, 3.33, 3.33, 3.33, 4.3, 4.3, 4.11, 4.11, 3.7, 3.7, 3.6, 3.82, 3.87, 4.3, 4.89, 4.89, 4.34, 3.35, 2.84, 3.09, 3.16, 2.86, 2.48, 2.23, 2.23, 2.23, 2.23, 2.23, 1.8, 1.8, 1.8, 1.8, 1.6, 1.6, 1.13, 1.13, 1.13, 1.13, 0.59, 0.59, 0.59, 1.13, 1.33, 1.16, 1.61, 1.61, 1.61, 1.88, 2.21, 2.21, 2.53, 2.21, 2.5, 2.68, 2.68, 2.68, 2.91, 2.91, 3.53, 3.53, 4.02, 4.02, 4.02, 4.02, 4.02, 4.02, 4.02, 3.58, 3.13, 4.92, 6.2, 6.45, 6.94, 7.42, 7.89, 8.45, 9.24, 9.68, 9.7, 10.45, 10.68, 10.85, 11.2, 11.26, 11.26, 11.88, 13.14, 16.48, 17.19, 13.07, 7.28, 7.92, 8.88, 8.67, 7.92, 8.0, 8.0, 7.12, 5.15, 2.4, 2.4, 2.4, 4.34, 4.34, 4.3, 4.3, 3.87, 3.87, 3.87, 3.87, 3.87, 4.44, 4.89, 4.89, 4.3, 3.35, 3.14, 3.14, 2.84, 2.58, 2.23, 2.23, 2.23, 2.51, 2.23, 2.23, 2.23, 2.23, 1.8, 1.8, 1.6, 1.6, 1.6, 1.6, 1.13, 1.13, 0.59, 0.59, 1.13, 1.13, 1.33, 1.33, 1.84, 1.61, 1.61, 1.88, 2.21, 2.21, 2.21, 2.21, 2.5, 2.68, 2.68, 2.68, 2.91, 3.53, 3.53, 3.53, 3.98, 4.02, 4.02, 4.02, 4.02, 4.02, 4.02, 3.58, 3.13, 4.92, 5.29, 6.45, 6.7, 7.37, 7.42, 7.85, 8.45, 9.35, 9.7, 9.97, 10.25, 10.15, 10.63, 11.2, 11.2, 11.02, 11.64, 14.95, 18.06, 9.45, 8.3, 8.88, 9.45, 9.86, 9.18, 8.19, 7.89, 7.12, 5.15, 2.4, 2.4, 2.4, 4.34, 4.34, 4.3, 4.3, 3.87, 3.87, 3.87, 3.98, 3.98, 4.44, 4.92, 4.44, 3.87, 3.6, 2.79, 3.14, 2.84, 2.51, 2.23, 2.23, 2.51, 2.51, 2.51, 2.51, 2.23, 2.23, 2.23, 1.8, 1.8, 1.6, 1.6, 1.6, 1.6, 1.13, 1.13, 0.51, 1.16, 1.33, 1.33, 1.33, 1.84, 1.61, 1.61, 1.88, 2.21, 2.21, 2.21, 2.21, 2.5, 2.68, 2.68, 2.91, 2.91, 3.53, 3.53, 3.53, 3.53, 3.58, 4.02, 4.02, 4.02, 4.02, 4.02, 3.58, 3.13, 2.68, 4.92, 5.73, 6.45, 6.57, 6.8, 7.35, 7.63, 7.63, 9.24, 9.24, 9.49, 10.0, 10.4, 10.63, 10.63, 10.55, 11.09, 14.42, 14.56, 10.27, 9.2, 9.34, 9.68, 10.1, 9.6, 8.91, 7.89, 7.12, 5.15, 3.33, 3.33, 3.33, 4.34, 4.34, 4.3, 4.3, 3.87, 3.87, 3.98, 3.98, 3.98, 4.47, 4.92, 4.44, 3.87, 3.6, 2.79, 2.79, 2.84, 2.51, 2.51, 2.51, 2.51, 2.51, 2.51, 2.51, 2.23, 2.23, 2.23, 2.23, 1.8, 1.8, 1.8, 1.8, 1.6, 1.84, 1.33, 1.16, 1.16, 1.16, 1.16, 1.61, 1.61, 1.61, 1.88, 1.88, 2.21, 2.21, 2.21, 2.21, 2.5, 3.07, 2.91, 2.91, 3.07, 3.07, 3.09, 3.09, 3.58, 3.58, 3.58, 3.58, 4.02, 4.02, 4.02, 3.58, 3.13, 2.24, 4.47, 5.36, 5.51, 6.16, 6.21, 6.8, 7.35, 6.82, 7.76, 8.4, 9.03, 9.42, 9.6, 10.0, 10.15, 10.55, 11.37, 17.59, 14.31, 10.52, 9.08, 9.4, 9.4, 9.6, 9.74, 9.34, 8.95, 7.76, 5.58, 3.47, 3.47, 3.47, 4.44, 4.44, 4.34, 4.3, 3.98, 3.98, 3.98, 4.02, 4.47, 4.47, 4.92, 4.44, 3.87, 3.6, 2.79, 2.79, 2.79, 2.23, 2.23, 2.51, 2.51, 2.51, 2.23, 2.23, 2.23, 2.23, 2.23, 2.23, 2.23, 1.8, 1.8, 1.8, 2.23, 1.84, 1.84, 1.16, 1.16, 1.16, 1.16, 1.61, 1.61, 1.88, 1.88, 1.88, 1.88, 2.21, 2.21, 2.5, 2.5, 2.68, 2.91, 3.07, 2.63, 3.07, 3.13, 3.13, 3.13, 3.13, 3.58, 3.58, 3.58, 3.58, 3.58, 3.58, 3.13, 2.68, 2.24, 2.24, 5.29, 6.2, 6.45, 6.94, 7.35, 7.42, 7.42, 7.44, 8.43, 9.03, 9.6, 9.9, 9.6, 10.55, 14.64, 17.19, 14.56, 10.32, 8.4, 8.4, 8.4, 8.88, 9.45, 9.52, 10.0, 8.8, 5.58, 3.47, 3.47, 3.47, 4.44, 4.44, 4.44, 4.43, 3.98, 3.98, 4.02, 4.47, 4.47, 4.47, 4.47, 4.44, 3.87, 3.6, 3.6, 2.79, 2.79, 2.79, 2.79, 2.23, 2.51, 2.58, 2.86, 2.6, 2.22, 2.22, 2.22, 2.48, 2.48, 2.48, 2.23, 2.23, 2.23, 2.51, 1.84, 1.84, 1.16, 1.16, 1.16, 1.61, 1.88, 1.88, 1.88, 1.88, 1.88, 2.21, 2.21, 2.5, 2.5, 2.68, 2.91, 2.91, 2.6, 2.6, 2.63, 2.68, 2.68, 3.13, 3.13, 3.13, 3.58, 3.58, 3.58, 3.58, 3.13, 3.13, 2.68, 2.24, 4.47, 5.81, 6.71, 7.1, 7.85, 7.76, 7.76, 7.76, 8.4, 8.95, 9.03, 9.6, 9.6, 10.55, 13.64, 16.71, 15.24, 10.43, 7.76, 7.82, 7.92, 8.93, 9.52, 10.0, 10.55, 9.6, 6.18, 3.22, 3.22, 3.22, 4.44, 4.44, 4.44, 4.44, 4.44, 4.47, 4.47, 4.47, 4.47, 4.47, 4.47, 4.44, 3.87, 3.7, 3.6, 3.07, 3.07, 2.79, 2.84, 2.84, 2.86, 2.86, 2.86, 2.86, 2.86, 2.86, 2.86, 2.86, 2.22, 2.48, 2.48, 2.23, 2.23, 2.51, 2.23, 1.84, 1.84, 1.61, 1.61, 1.88, 1.88, 1.88, 1.88, 1.88, 1.88, 2.21, 2.21, 2.5, 2.5, 2.5, 2.91, 2.91, 2.6, 2.6, 2.6, 2.68, 2.68, 2.68, 3.13, 3.13, 3.58, 3.58, 3.58, 3.58, 3.58, 3.13, 2.6, 2.24, 2.24, 4.92, 6.26, 7.1, 7.55, 7.63, 8.06, 8.06, 8.06, 8.72, 8.95, 9.49, 9.6, 10.63, 12.56, 15.9, 16.85, 12.15, 8.24, 7.92, 8.49, 9.45, 10.0, 10.0, 10.0, 10.55, 7.82, 3.47, 3.47, 3.47, 4.44, 4.44, 4.44, 4.44, 4.44, 4.47, 4.47, 4.47, 4.92, 4.92, 4.47, 4.47, 3.98, 3.87, 3.87, 3.6, 2.79, 2.84, 2.86, 2.86, 2.86, 3.49, 3.49, 3.22, 2.84, 2.84, 3.12, 2.86, 2.86, 2.86, 2.48, 2.48, 2.23, 2.51, 2.23, 2.23, 1.84, 1.61, 1.88, 1.88, 1.88, 1.88, 1.88, 1.88, 2.21, 2.21, 2.5, 2.5, 2.5, 2.68, 2.91, 2.91, 2.63, 2.6, 2.6, 2.6, 2.68, 2.68, 3.13, 3.13, 3.13, 3.58, 3.58, 3.58, 3.53, 3.07, 2.6, 2.12, 1.86, 4.82, 5.81, 6.71, 7.1, 7.12, 7.35, 7.76, 7.35, 8.56, 8.82, 8.95, 10.0, 10.96, 12.04, 14.58, 16.71, 14.58, 9.84, 8.3, 8.88, 9.34, 9.74, 10.0, 10.4, 10.96, 8.43, 4.58, 4.58, 4.58, 4.47, 4.47, 4.44, 4.47, 4.47, 4.47, 4.92, 4.92, 4.92, 4.92, 4.47, 4.47, 4.43, 3.87, 3.87, 3.6, 3.72, 3.43, 3.48, 3.49, 3.49, 3.49, 3.49, 3.49, 3.49, 3.49, 3.22, 3.49, 2.86, 2.86, 2.86, 2.86, 2.58, 2.51, 2.51, 2.23, 2.23, 2.23, 1.88, 1.88, 1.88, 1.88, 1.88, 2.21, 2.5, 2.5, 2.5, 2.5, 2.68, 2.68, 2.91, 2.91, 3.07, 2.63, 2.63, 2.63, 2.68, 2.68, 3.13, 3.13, 3.13, 3.58, 3.58, 3.58, 3.53, 3.07, 2.4, 1.86, 2.15, 4.57, 5.81, 6.26, 6.45, 6.7, 7.12, 7.2, 7.35, 7.35, 8.3, 9.36, 9.6, 10.85, 11.87, 13.72, 15.84, 14.58, 10.63, 8.88, 9.05, 9.74, 9.74, 10.0, 10.4, 10.63, 9.27, 5.77, 5.77, 5.77, 4.47, 4.47, 4.47, 4.47, 4.47, 4.92, 4.92, 4.89, 4.89, 4.92, 4.92, 4.47, 4.44, 4.44, 4.3, 3.88, 4.0, 3.73, 4.07, 3.79, 4.11, 3.83, 3.83, 3.83, 3.49, 3.49, 3.49, 3.49, 3.49, 3.2, 2.86, 2.86, 2.58, 2.84, 2.51, 2.23, 2.23, 2.53, 2.53, 2.21, 2.21, 2.21, 2.21, 2.5, 2.5, 2.5, 2.5, 2.68, 2.68, 2.68, 2.91, 2.91, 3.07, 3.07, 2.63, 2.63, 2.68, 2.68, 3.13, 3.13, 3.13, 3.58, 3.58, 3.58, 3.53, 3.53, 2.91, 2.4, 2.5, 3.07, 3.98, 6.26, 6.45, 6.45, 6.7, 7.12, 7.35, 7.76, 8.3, 8.95, 9.9, 10.68, 12.09, 13.49, 15.13, 13.91, 11.2, 9.45, 9.45, 9.74, 9.45, 10.0, 10.4, 10.63, 10.63, 7.81, 7.81, 7.81, 4.47, 4.47, 4.47, 4.47, 4.47, 4.92, 4.92, 5.33, 4.89, 4.92, 4.92, 4.92, 4.89, 4.77, 4.6, 4.4, 4.0, 4.07, 4.07, 4.11, 4.11, 3.83, 3.83, 3.83, 3.83, 3.49, 3.49, 3.49, 3.49, 3.48, 3.48, 2.86, 3.16, 2.84, 2.84, 2.84, 2.79, 2.53, 2.53, 2.53, 2.53, 2.21, 2.5, 2.5, 2.5, 2.5, 2.68, 2.68, 2.68, 2.91, 3.32, 3.32, 3.07, 3.07, 3.07, 2.63, 2.68, 2.68, 3.13, 3.13, 3.13, 3.58, 3.58, 3.58, 3.53, 3.53, 2.91, 2.8, 2.5, 2.5, 3.39, 5.36, 5.75, 7.01, 6.45, 6.94, 7.63, 8.06, 8.14, 8.63, 9.75, 10.68, 11.66, 13.01, 14.21, 13.64, 11.6, 10.04, 9.45, 9.45, 9.45, 9.84, 10.09, 10.48, 11.04, 8.88, 8.88, 8.88, 4.92, 4.92, 4.47, 4.47, 4.47, 4.92, 4.92, 5.33, 5.33, 5.36, 5.36, 5.36, 5.33, 5.24, 5.09, 4.8, 4.55, 4.65, 4.65, 4.37, 4.37, 4.43, 4.12, 3.83, 4.11, 4.11, 3.79, 3.49, 3.79, 3.48, 3.48, 3.16, 3.16, 2.84, 2.84, 2.84, 3.14, 2.79, 2.79, 2.79, 2.79, 2.79, 3.07, 3.07, 2.68, 2.68, 2.68, 2.68, 3.32, 3.32, 3.39, 3.39, 3.53, 3.07, 3.07, 3.13, 2.68, 2.68, 3.13, 3.13, 3.13, 3.58, 3.58, 3.58, 3.58, 3.53, 3.39, 2.91, 2.5, 2.5, 2.5, 2.91, 3.58, 6.71, 6.2, 6.65, 7.55, 7.85, 8.33, 8.77, 9.24, 10.45, 11.18, 12.37, 13.49, 13.11, 11.83, 10.66, 10.23, 10.04, 10.04, 9.65, 9.7, 10.09, 10.94, 10.0, 10.0, 10.0, 4.92, 4.92, 4.47, 4.47, 4.47, 4.92, 4.92, 5.33, 5.33, 5.36, 5.36, 5.36, 5.33, 5.24, 5.09, 4.8, 4.55, 4.65, 4.65, 4.37, 4.37, 4.43, 4.12, 3.83, 4.11, 4.11, 3.79, 3.49, 3.79, 3.48, 3.48, 3.16, 3.16, 2.84, 2.84, 2.84, 3.14, 2.79, 2.79, 2.79, 2.79, 2.79, 3.07, 3.07, 2.68, 2.68, 2.68, 2.68, 3.32, 3.32, 3.39, 3.39, 3.53, 3.07, 3.07, 3.13, 2.68, 2.68, 3.13, 3.13, 3.13, 3.58, 3.58, 3.58, 3.58, 3.53, 3.39, 2.91, 2.5, 2.5, 2.5, 2.91, 3.58, 6.71, 6.2, 6.65, 7.85, 7.85, 8.33, 8.77, 9.24, 9.97, 10.68, 11.87, 12.56, 12.79, 11.88, 11.28, 11.04, 10.66, 10.28, 10.23, 10.23, 10.23, 11.09, 10.32, 10.32, 10.32]}, {"header": {"dx": 0.06612293990616946, "dy": 0.0552356325346848, "nx": 98, "ny": 59, "la1": 35.046912555036876, "la2": 31.78801023549047, "lo1": -121.43107172385933, "lo2": -114.95102361305473, "refTime": "2026041100", "parameterCategory": 1, "parameterNumber": 3}, "data": [7.4, 7.87, 7.87, 8.3, 8.3, 8.21, 8.64, 8.64, 8.96, 9.21, 9.42, 8.68, 9.43, 8.68, 8.03, 8.05, 9.24, 9.66, 10.18, 10.6, 10.21, 10.62, 9.42, 9.05, 9.67, 10.04, 10.28, 10.23, 10.55, 10.55, 11.09, 11.09, 11.09, 10.0, 8.43, 5.51, 0.0, 0.0, 2.8, 7.42, 10.16, 10.12, 9.97, 10.05, 10.62, 10.23, 10.63, 10.66, 11.04, 10.66, 10.63, 10.58, 9.8, 9.7, 8.84, 8.56, 8.18, 8.3, 8.76, 8.3, 8.3, 7.9, 7.9, 8.3, 8.85, 9.96, 10.63, 10.24, 10.12, 9.77, 9.8, 8.74, 7.4, 5.62, 4.13, 3.14, 2.39, 0.69, 0.0, -1.64, -1.68, 0.0, 3.79, 5.51, 6.02, 6.0, 6.44, 7.2, 7.82, 8.3, 9.06, 9.06, 9.06, 8.4, 7.44, 7.15, 6.79, 7.2, 7.4, 7.84, 7.87, 7.87, 8.3, 8.33, 8.64, 8.64, 9.11, 9.43, 9.7, 11.09, 9.65, 9.27, 9.1, 9.75, 9.54, 10.91, 10.6, 9.75, 11.03, 10.62, 10.62, 9.86, 9.05, 9.65, 10.04, 10.0, 10.43, 10.85, 11.79, 11.87, 11.87, 9.9, 8.3, 6.7, 5.2, 4.6, 6.94, 9.7, 11.05, 11.4, 10.6, 9.9, 10.4, 10.63, 10.28, 10.28, 10.29, 10.28, 10.24, 9.8, 8.95, 8.66, 8.66, 8.95, 9.06, 8.76, 8.76, 8.76, 8.3, 8.01, 8.01, 8.85, 9.96, 10.63, 10.24, 9.89, 9.8, 8.72, 8.99, 8.96, 7.8, 5.83, 3.91, 2.45, 1.65, 0.69, 0.0, -1.64, -1.68, 0.0, 3.79, 5.51, 6.02, 6.0, 6.44, 7.2, 7.82, 8.3, 9.06, 9.06, 9.06, 8.4, 7.44, 7.15, 6.79, 7.2, 7.4, 7.4, 7.87, 7.87, 7.87, 8.3, 8.33, 8.77, 9.23, 9.57, 9.86, 9.51, 10.0, 9.03, 8.67, 9.54, 10.16, 10.14, 10.84, 11.45, 10.18, 10.05, 10.21, 10.94, 11.6, 9.6, 9.9, 9.49, 10.18, 11.18, 12.09, 12.58, 12.74, 11.84, 9.24, 9.03, 8.56, 8.3, 9.49, 10.6, 10.62, 10.32, 10.43, 10.55, 10.04, 10.04, 10.04, 10.04, 10.01, 9.62, 9.89, 8.95, 8.95, 8.45, 8.01, 8.66, 8.76, 9.17, 9.17, 8.76, 8.01, 8.01, 8.12, 10.01, 11.28, 11.25, 10.51, 9.8, 8.66, 8.05, 7.45, 8.03, 7.8, 7.27, 4.91, 3.23, 1.6, 0.83, 0.0, 0.0, 2.23, 5.73, 7.1, 7.1, 6.21, 5.75, 5.82, 6.6, 7.2, 8.06, 8.77, 8.77, 8.3, 7.82, 6.79, 6.11, 6.82, 7.76, 6.94, 7.4, 7.87, 7.87, 7.87, 7.97, 7.97, 8.42, 8.87, 9.68, 10.01, 9.7, 9.6, 9.08, 9.54, 10.25, 10.25, 10.25, 10.6, 10.25, 9.75, 9.21, 9.04, 9.03, 10.23, 11.03, 9.66, 9.06, 9.68, 10.89, 11.84, 12.86, 12.86, 13.19, 11.55, 10.65, 10.6, 10.46, 9.75, 10.45, 10.45, 10.18, 9.9, 9.65, 9.65, 10.04, 9.67, 9.66, 10.01, 9.96, 8.79, 8.66, 8.18, 8.18, 8.76, 8.76, 9.17, 9.17, 8.85, 8.85, 8.42, 8.12, 9.0, 10.87, 12.27, 12.26, 11.14, 9.37, 7.93, 7.19, 7.13, 7.45, 8.25, 8.65, 7.2, 4.71, 2.44, 0.0, 1.27, 5.51, 8.01, 8.9, 8.77, 8.0, 6.65, 6.2, 6.02, 6.16, 7.37, 7.85, 7.85, 7.63, 7.35, 6.82, 6.11, 6.8, 7.63, 8.33, 6.94, 7.4, 7.4, 7.87, 7.87, 7.97, 7.97, 7.97, 8.47, 9.32, 9.57, 9.43, 9.75, 9.49, 9.7, 9.8, 9.81, 9.8, 10.25, 10.6, 10.91, 10.47, 9.97, 10.05, 9.66, 10.6, 11.35, 10.91, 11.11, 10.14, 10.7, 11.15, 11.18, 10.7, 11.35, 10.41, 10.05, 9.32, 8.8, 9.24, 9.75, 9.36, 9.42, 9.05, 9.05, 9.43, 9.67, 9.66, 9.62, 9.17, 8.76, 8.3, 8.3, 8.3, 9.17, 9.17, 8.85, 8.85, 8.85, 8.12, 8.12, 8.64, 10.04, 11.6, 12.86, 12.87, 11.38, 10.65, 9.31, 8.18, 7.9, 8.31, 9.42, 9.79, 8.96, 6.6, 4.06, 0.78, 2.76, 6.7, 9.11, 9.83, 9.7, 9.06, 8.0, 7.1, 6.65, 6.94, 7.1, 7.1, 6.94, 6.7, 6.21, 5.82, 6.21, 7.42, 8.45, 8.45, 6.94, 6.97, 7.51, 7.4, 7.4, 7.51, 7.51, 7.58, 8.03, 8.47, 9.32, 9.11, 9.97, 9.68, 9.34, 9.83, 9.83, 9.83, 9.8, 9.7, 10.12, 10.14, 11.4, 11.84, 11.35, 11.11, 11.55, 12.01, 11.84, 11.84, 9.24, 9.39, 8.94, 8.49, 7.89, 8.3, 7.44, 6.73, 6.11, 8.06, 9.06, 10.46, 10.0, 9.65, 8.68, 8.68, 9.04, 9.0, 8.93, 8.42, 7.24, 7.73, 8.12, 8.12, 8.85, 9.62, 8.85, 8.85, 8.53, 8.12, 7.9, 9.04, 10.96, 12.45, 12.86, 12.87, 12.42, 11.38, 10.34, 9.7, 9.06, 8.95, 8.99, 8.86, 8.96, 7.91, 5.55, 3.19, 2.49, 6.94, 9.97, 10.73, 10.6, 10.25, 9.49, 8.01, 7.1, 6.65, 6.64, 6.64, 6.45, 6.16, 5.15, 5.15, 6.57, 8.0, 8.49, 8.45, 6.51, 6.94, 7.07, 7.4, 7.4, 7.51, 7.13, 7.13, 7.6, 7.6, 8.49, 8.87, 9.8, 9.8, 9.83, 9.39, 9.39, 9.39, 9.39, 8.91, 8.9, 8.9, 9.8, 10.69, 11.11, 9.76, 10.22, 11.55, 11.56, 10.18, 10.47, 9.39, 8.05, 7.15, 6.98, 7.35, 7.44, 7.56, 6.98, 7.12, 9.03, 9.63, 10.62, 10.04, 9.66, 8.31, 8.31, 7.59, 7.48, 7.95, 7.95, 7.82, 8.12, 8.22, 8.6, 8.93, 8.53, 8.22, 8.22, 8.22, 7.97, 9.6, 11.87, 12.98, 12.79, 12.87, 12.78, 12.09, 11.76, 11.06, 9.31, 7.79, 6.79, 6.47, 5.56, 5.61, 5.56, 4.13, 2.45, 4.07, 10.28, 12.07, 11.36, 10.85, 10.43, 8.67, 7.1, 6.2, 5.73, 5.73, 5.09, 4.46, 4.74, 5.49, 6.8, 8.33, 8.45, 8.9, 6.47, 6.94, 7.06, 7.07, 6.97, 7.07, 7.13, 7.13, 6.71, 7.15, 7.6, 8.05, 9.39, 9.83, 9.83, 8.49, 8.49, 8.94, 8.49, 8.49, 8.05, 7.6, 8.05, 8.49, 8.45, 8.41, 8.41, 9.54, 10.05, 10.91, 10.66, 10.73, 8.94, 7.6, 6.51, 5.82, 5.46, 6.11, 7.21, 8.0, 8.48, 8.63, 8.93, 8.49, 8.22, 8.53, 7.97, 7.48, 7.18, 7.95, 6.7, 7.48, 8.22, 8.31, 8.31, 8.22, 7.9, 8.31, 7.9, 7.59, 8.42, 10.43, 12.3, 12.56, 12.23, 11.9, 12.16, 12.09, 11.29, 10.54, 8.61, 7.01, 4.87, 3.28, 2.43, 2.15, 3.16, 3.2, 1.55, 4.07, 10.27, 11.99, 11.28, 10.79, 10.0, 9.2, 6.79, 5.29, 4.82, 4.4, 3.58, 3.48, 5.15, 6.79, 8.06, 8.8, 9.06, 9.24, 6.47, 6.61, 7.06, 7.06, 6.94, 7.06, 6.61, 6.68, 6.26, 6.71, 6.68, 7.06, 9.29, 8.94, 8.94, 8.94, 8.49, 8.05, 8.05, 8.49, 8.94, 8.49, 8.05, 8.05, 7.6, 7.6, 7.6, 8.38, 9.29, 9.29, 9.39, 8.94, 7.6, 7.01, 5.6, 4.54, 4.43, 5.72, 6.98, 7.44, 7.81, 7.81, 7.56, 7.59, 6.98, 7.27, 8.22, 9.08, 9.26, 8.93, 8.53, 7.59, 7.97, 8.38, 7.97, 7.59, 7.97, 8.38, 7.59, 6.95, 8.8, 11.18, 11.37, 11.75, 10.9, 10.63, 10.43, 10.54, 10.15, 9.66, 7.93, 6.6, 4.16, 2.16, 1.42, 0.0, 0.0, 0.0, 1.7, 7.31, 12.04, 12.18, 11.52, 10.53, 10.09, 9.19, 7.67, 4.98, 3.39, 2.21, 1.8, 3.79, 6.44, 8.38, 9.0, 9.04, 9.42, 9.75, 6.04, 6.6, 6.61, 7.06, 6.94, 6.61, 6.61, 6.6, 6.23, 5.81, 6.23, 6.14, 5.24, 5.36, 7.15, 7.6, 7.6, 7.08, 7.5, 7.94, 8.05, 8.05, 8.05, 8.05, 7.6, 7.15, 7.15, 7.6, 7.6, 8.05, 7.6, 7.15, 6.71, 6.07, 5.36, 5.01, 4.43, 4.89, 6.63, 7.56, 6.73, 6.64, 6.04, 6.04, 5.76, 6.95, 7.27, 8.22, 9.56, 9.62, 8.6, 8.31, 8.38, 8.03, 7.35, 7.06, 7.41, 7.76, 7.35, 7.81, 9.75, 11.61, 12.6, 11.6, 10.29, 9.26, 8.3, 8.66, 8.51, 8.29, 7.11, 5.72, 5.1, 3.64, 1.45, 0.0, -0.81, 0.82, 5.94, 10.94, 12.66, 12.66, 11.47, 10.65, 10.15, 9.21, 7.94, 5.06, 1.8, 0.87, 2.53, 6.08, 9.05, 10.01, 9.62, 9.66, 9.67, 10.55, 6.04, 6.47, 6.61, 6.61, 6.51, 6.51, 6.6, 6.16, 5.79, 5.81, 5.78, 5.78, 5.33, 4.92, 6.26, 6.26, 5.81, 3.53, 3.39, 3.39, 5.09, 5.26, 5.81, 5.81, 7.15, 6.26, 6.26, 6.26, 6.26, 5.81, 6.07, 5.29, 5.26, 4.57, 4.6, 5.36, 5.06, 6.63, 6.01, 5.76, 6.04, 4.83, 4.83, 5.72, 5.72, 5.59, 6.64, 7.68, 8.38, 8.65, 10.01, 10.66, 10.66, 10.63, 9.43, 8.43, 7.82, 6.82, 6.79, 8.4, 10.68, 12.09, 11.5, 10.66, 9.62, 8.12, 7.36, 6.7, 7.38, 7.13, 7.01, 6.4, 5.81, 4.17, 1.43, 0.0, 1.63, 7.42, 11.79, 13.11, 13.07, 12.64, 11.75, 10.73, 10.19, 9.21, 8.53, 6.05, 2.9, 2.2, 5.3, 9.04, 10.29, 10.28, 9.62, 9.66, 10.04, 10.63, 5.81, 6.04, 6.6, 6.6, 6.47, 6.47, 6.16, 6.16, 5.7, 5.81, 5.36, 5.34, 5.33, 4.92, 4.47, 3.98, 3.87, 3.13, 2.24, 2.4, 2.68, 2.68, 3.07, 6.07, 6.58, 5.6, 5.2, 2.91, 4.92, 5.36, 4.84, 5.6, 4.98, 4.6, 3.79, 4.11, 4.65, 4.83, 5.1, 5.21, 5.06, 4.2, 4.34, 4.71, 5.03, 5.77, 8.54, 9.6, 10.0, 10.4, 11.2, 12.7, 13.64, 14.58, 13.49, 12.56, 11.09, 7.82, 6.16, 9.06, 12.09, 12.04, 11.2, 10.29, 9.96, 9.89, 9.17, 8.12, 8.12, 9.8, 9.66, 8.1, 6.36, 4.75, 2.35, 4.11, 8.8, 12.53, 13.07, 13.19, 12.86, 12.86, 12.27, 10.91, 10.19, 9.2, 8.16, 6.62, 4.87, 5.78, 8.3, 10.15, 10.19, 9.62, 9.27, 9.66, 10.04, 11.2, 5.81, 5.99, 6.16, 6.16, 6.04, 6.04, 6.04, 5.57, 5.7, 5.34, 5.36, 5.36, 5.36, 4.92, 4.02, 3.54, 3.82, 2.91, 2.17, 1.7, 1.9, 1.88, 2.51, 2.23, 2.48, 2.48, 2.23, 2.79, 3.39, 3.13, 4.57, 5.21, 4.81, 4.43, 4.11, 4.43, 4.74, 5.24, 4.5, 4.34, 4.2, 4.0, 4.26, 5.06, 5.59, 7.2, 9.63, 10.05, 10.0, 10.62, 10.52, 11.03, 12.18, 13.53, 14.81, 15.58, 14.56, 12.45, 7.82, 9.54, 12.53, 12.15, 10.66, 10.28, 11.28, 11.9, 12.76, 12.51, 12.23, 13.49, 13.8, 12.01, 8.3, 5.21, 4.43, 8.45, 12.27, 13.49, 13.74, 13.54, 12.97, 12.26, 11.45, 10.84, 10.58, 9.48, 7.51, 6.36, 6.44, 7.9, 9.56, 9.56, 9.57, 8.93, 8.93, 9.66, 10.28, 11.2, 5.4, 5.57, 5.99, 6.04, 6.04, 6.04, 5.99, 5.57, 5.7, 5.34, 5.36, 5.36, 5.36, 4.92, 4.44, 3.87, 3.82, 3.2, 2.49, 1.79, 2.12, 1.61, 1.16, 0.59, 0.59, 1.11, 1.8, 2.84, 3.6, 3.87, 4.02, 5.6, 5.72, 4.43, 4.74, 5.15, 5.43, 5.24, 4.26, 3.45, 3.45, 3.4, 4.75, 6.28, 7.6, 9.03, 8.56, 9.04, 9.45, 10.05, 10.05, 9.54, 9.54, 9.54, 9.63, 9.45, 10.99, 12.8, 13.01, 10.85, 12.53, 13.02, 13.43, 12.95, 12.23, 12.86, 13.59, 13.89, 13.59, 11.88, 13.49, 12.96, 9.7, 5.36, 5.58, 8.8, 11.18, 12.29, 12.89, 13.26, 12.22, 11.54, 10.43, 9.37, 9.43, 8.95, 7.12, 6.57, 7.22, 8.27, 8.94, 8.93, 8.57, 8.93, 8.22, 9.66, 10.28, 11.26, 5.31, 5.57, 5.57, 5.57, 5.57, 5.99, 5.57, 5.57, 5.24, 5.33, 5.36, 5.36, 5.36, 4.92, 4.44, 3.87, 3.87, 4.11, 3.07, 1.86, 2.24, 2.63, 1.58, -0.0, -0.0, 1.13, 2.86, 3.16, 3.88, 4.3, 4.47, 4.34, 6.52, 5.37, 5.72, 6.9, 6.63, 5.24, 4.0, 2.51, 3.55, 6.28, 6.9, 7.6, 8.0, 8.17, 8.6, 8.06, 8.0, 8.0, 7.81, 7.6, 7.2, 6.52, 5.93, 6.28, 6.87, 8.53, 11.44, 12.09, 11.37, 12.04, 11.88, 12.27, 12.95, 12.95, 13.59, 12.56, 9.66, 8.15, 9.96, 11.29, 9.92, 6.7, 5.59, 7.82, 9.6, 10.29, 10.58, 10.43, 9.6, 8.84, 8.2, 7.44, 6.44, 8.05, 7.9, 7.82, 8.27, 9.0, 9.0, 8.27, 8.57, 8.22, 8.64, 10.66, 11.26, 11.26, 5.31, 5.51, 5.57, 5.57, 5.57, 5.57, 5.57, 5.51, 5.09, 5.33, 5.36, 5.36, 5.36, 5.33, 4.8, 4.34, 4.77, 4.6, 3.35, 1.58, 2.24, 4.47, 3.13, 0.0, -0.0, 1.86, 3.88, 4.27, 3.88, 4.34, 4.47, 4.34, 4.4, 6.08, 6.52, 6.4, 5.77, 4.95, 5.03, 5.37, 5.58, 6.8, 7.6, 8.0, 7.6, 7.63, 7.63, 7.63, 6.9, 6.63, 6.98, 6.63, 6.63, 6.63, 6.63, 5.03, 5.03, 6.58, 8.24, 10.23, 9.65, 9.3, 9.3, 8.22, 8.22, 9.08, 8.65, 8.85, 7.9, 7.56, 7.97, 8.94, 8.74, 7.2, 7.01, 8.12, 8.93, 8.85, 7.9, 7.25, 6.31, 5.8, 4.93, 4.87, 4.13, 4.92, 7.51, 8.53, 9.26, 9.26, 8.53, 7.9, 7.9, 8.59, 9.9, 10.65, 11.12, 11.12, 5.08, 5.31, 5.51, 5.51, 5.51, 5.51, 5.51, 5.31, 5.09, 5.24, 5.36, 5.36, 5.36, 5.33, 5.24, 4.89, 5.34, 5.57, 4.27, 1.58, 2.24, 5.34, 4.92, 1.7, 0.0, 1.79, 4.44, 4.88, 4.34, 4.44, 4.02, 4.3, 4.6, 6.64, 6.28, 6.4, 6.16, 6.64, 6.4, 7.06, 7.63, 6.7, 7.6, 6.21, 7.2, 7.2, 7.2, 6.9, 5.69, 5.03, 5.31, 5.31, 6.32, 6.64, 6.64, 6.64, 6.01, 4.88, 5.98, 8.22, 7.9, 6.98, 5.98, 5.1, 4.6, 5.21, 5.46, 6.01, 7.9, 9.3, 9.17, 6.79, 6.52, 7.11, 8.03, 8.99, 9.11, 7.93, 6.52, 5.67, 4.81, 4.06, 3.29, 2.89, 3.36, 4.2, 6.7, 8.93, 8.85, 8.42, 7.15, 7.27, 8.3, 9.56, 10.28, 10.35, 10.79, 10.79, 4.55, 4.9, 5.09, 5.09, 5.09, 5.09, 5.09, 5.31, 5.09, 5.24, 5.33, 5.36, 5.36, 5.33, 4.89, 4.89, 5.78, 6.04, 4.9, 2.0, 2.63, 5.7, 5.81, 3.87, 2.17, 2.24, 4.44, 4.47, 4.47, 4.47, 4.02, 3.87, 4.11, 4.27, 4.4, 5.94, 5.29, 5.64, 5.6, 6.0, 6.4, 6.64, 6.0, 5.72, 6.52, 6.9, 6.28, 5.69, 5.03, 3.8, 3.8, 3.8, 5.31, 6.32, 6.32, 6.64, 6.01, 6.3, 7.27, 6.98, 6.98, 5.69, 4.6, 3.61, 3.61, 3.32, 2.4, 3.68, 5.31, 6.98, 6.2, 5.67, 5.6, 6.36, 7.34, 8.16, 8.74, 8.03, 6.47, 4.87, 4.1, 3.19, 3.25, 5.04, 5.64, 6.42, 6.7, 7.48, 7.36, 8.12, 7.82, 7.59, 8.55, 10.09, 10.66, 10.29, 10.19, 10.19, 4.55, 4.8, 4.9, 5.09, 5.09, 5.09, 5.09, 4.9, 4.9, 5.24, 4.89, 4.89, 4.89, 4.88, 4.88, 5.81, 5.36, 5.72, 5.57, 3.87, 4.02, 5.7, 5.81, 6.71, 6.26, 7.15, 4.92, 6.26, 5.81, 4.02, 3.58, 3.53, 3.6, 3.88, 4.11, 3.87, 3.07, 2.23, 3.16, 3.47, 4.11, 4.11, 4.74, 4.02, 5.37, 5.69, 5.03, 4.14, 3.6, 3.8, 3.8, 5.31, 6.01, 6.63, 7.44, 7.21, 6.01, 7.27, 6.98, 6.24, 4.8, 4.8, 3.77, 3.21, 2.47, 2.57, 2.54, 2.67, 2.54, 3.77, 3.53, 4.85, 5.63, 6.4, 6.26, 5.67, 5.51, 5.56, 4.85, 4.04, 3.29, 4.25, 5.9, 6.79, 6.57, 6.31, 5.76, 6.05, 6.57, 7.15, 8.22, 8.65, 9.65, 10.48, 11.28, 10.28, 9.96, 9.96, 4.55, 4.8, 4.8, 4.8, 4.8, 5.02, 5.02, 4.9, 4.9, 5.09, 4.8, 4.89, 4.88, 4.34, 4.44, 4.47, 4.92, 5.36, 6.71, 6.65, 6.71, 5.36, 4.89, 6.26, 5.81, 6.2, 6.2, 4.89, 4.47, 4.02, 3.58, 3.09, 3.39, 3.72, 3.88, 3.7, 3.07, 1.9, 1.61, 1.8, 1.76, 1.73, 1.73, 2.2, 2.84, 3.91, 3.91, 3.6, 2.54, 2.69, 3.6, 6.01, 6.63, 7.07, 6.11, 6.01, 6.58, 6.24, 5.64, 4.8, 3.45, 3.45, 3.61, 3.61, 3.32, 4.34, 4.34, 5.21, 5.06, 4.13, 3.96, 4.07, 4.74, 4.03, 3.99, 2.44, 0.79, 0.0, 2.41, 4.1, 4.87, 5.63, 6.57, 6.57, 5.86, 5.09, 5.18, 5.78, 5.78, 7.27, 8.31, 10.01, 10.29, 10.66, 10.45, 10.58, 9.89, 9.89, 4.55, 4.55, 4.8, 4.4, 4.4, 4.6, 4.6, 4.4, 4.8, 4.6, 4.77, 4.77, 4.34, 4.34, 3.98, 4.47, 4.47, 4.47, 4.47, 5.81, 5.73, 4.44, 4.02, 4.02, 3.58, 3.98, 4.3, 4.44, 4.44, 4.02, 3.58, 3.58, 3.09, 3.2, 3.88, 3.72, 3.35, 2.53, 1.84, 1.8, 1.76, 1.76, 1.76, 1.76, 1.76, 2.66, 2.82, 2.54, 2.54, 2.54, 5.03, 6.28, 7.6, 6.63, 6.32, 6.01, 6.18, 5.86, 5.69, 4.88, 3.87, 3.87, 3.7, 3.7, 4.96, 5.76, 6.53, 7.59, 7.36, 6.7, 6.21, 5.45, 4.04, 1.63, 0.0, -0.77, -2.14, 0.0, 2.44, 5.8, 7.25, 7.25, 6.56, 5.0, 5.0, 4.13, 5.06, 6.58, 7.94, 7.64, 9.4, 10.66, 10.63, 10.19, 10.18, 9.48, 8.79, 8.79, 4.07, 4.55, 4.4, 4.4, 4.4, 4.4, 4.6, 4.4, 4.4, 4.6, 4.6, 4.34, 4.3, 4.11, 3.87, 4.02, 4.02, 4.02, 3.58, 3.53, 3.39, 3.39, 3.98, 4.02, 4.02, 3.98, 3.98, 3.98, 4.44, 4.47, 4.02, 3.58, 3.53, 3.39, 3.6, 3.35, 3.35, 2.84, 2.51, 2.23, 1.76, 1.76, 2.22, 1.76, 1.76, 1.76, 2.4, 2.4, 2.4, 3.91, 6.28, 7.2, 6.28, 6.28, 6.01, 6.32, 6.32, 6.53, 5.98, 4.88, 4.34, 3.32, 3.45, 4.5, 5.89, 6.64, 6.95, 7.68, 8.31, 9.76, 9.8, 9.47, 8.2, 4.14, -0.89, 0.0, 0.76, 2.23, 4.87, 6.44, 7.36, 6.69, 6.31, 4.93, 4.68, 5.14, 6.7, 9.0, 9.57, 8.58, 9.21, 10.19, 10.18, 10.18, 9.17, 8.79, 8.3, 8.3, 4.07, 4.07, 4.37, 4.27, 4.4, 4.4, 4.4, 4.4, 4.27, 4.11, 4.19, 4.11, 4.11, 4.11, 3.87, 3.98, 4.02, 4.02, 3.58, 3.53, 3.39, 3.39, 3.98, 3.98, 4.44, 4.44, 4.44, 4.44, 4.44, 4.44, 4.02, 4.02, 3.53, 3.39, 3.07, 2.79, 3.14, 2.84, 2.23, 2.48, 2.48, 2.22, 2.22, 2.22, 1.76, 1.76, 2.66, 2.66, 4.29, 5.37, 6.9, 6.28, 6.28, 5.69, 6.28, 6.63, 6.01, 6.95, 5.98, 4.5, 4.26, 4.5, 5.1, 6.01, 6.32, 6.64, 7.35, 7.76, 8.03, 8.65, 9.76, 9.5, 7.91, 4.34, 2.66, 3.11, 4.28, 4.6, 4.5, 4.32, 4.39, 4.87, 4.98, 4.93, 6.33, 8.12, 9.62, 9.96, 9.89, 9.56, 9.21, 9.56, 9.17, 8.79, 8.09, 7.73, 7.36, 7.36, 4.07, 4.07, 4.0, 4.0, 4.27, 4.27, 4.27, 4.27, 3.88, 4.11, 4.11, 4.11, 4.11, 3.7, 3.87, 3.98, 3.98, 3.54, 3.53, 3.53, 3.53, 3.98, 3.98, 3.98, 3.98, 3.98, 4.44, 4.3, 3.87, 3.98, 4.43, 3.98, 3.53, 3.53, 3.39, 3.07, 2.79, 2.84, 2.23, 2.48, 2.48, 2.48, 2.22, 2.22, 1.76, 1.11, 1.32, 2.66, 5.37, 6.28, 6.28, 5.37, 5.37, 5.37, 5.37, 6.28, 5.37, 6.01, 6.58, 6.3, 4.95, 5.24, 6.01, 5.89, 5.89, 6.64, 7.76, 8.73, 7.76, 7.35, 6.53, 5.56, 7.31, 8.82, 5.41, 3.34, 2.42, 2.19, 2.19, 0.73, 0.7, 1.41, 2.93, 5.1, 8.01, 9.56, 10.24, 10.24, 9.89, 9.48, 9.26, 8.16, 7.8, 7.36, 7.36, 7.36, 7.36, 7.36, 4.07, 4.07, 3.73, 4.0, 4.0, 4.27, 3.88, 3.88, 3.88, 3.88, 3.6, 3.6, 3.35, 3.6, 3.87, 3.87, 3.87, 3.53, 3.53, 3.54, 3.98, 3.98, 3.87, 3.53, 3.58, 4.02, 4.02, 3.98, 3.87, 3.87, 3.98, 3.98, 3.98, 3.53, 3.39, 3.35, 3.14, 2.84, 2.86, 2.48, 2.48, 2.48, 2.22, 2.22, 1.76, 0.55, 0.54, 1.14, 2.32, 3.04, 2.84, 3.91, 4.29, 5.06, 5.06, 5.37, 5.37, 4.58, 6.32, 6.95, 6.64, 5.24, 6.01, 5.89, 5.89, 7.06, 8.06, 8.42, 7.68, 5.21, 3.25, 3.25, 6.84, 9.67, 8.87, 4.66, 1.42, 0.0, 0.0, -0.78, -0.72, 0.75, 4.31, 7.85, 9.89, 10.24, 9.89, 9.56, 9.48, 9.13, 8.05, 7.09, 6.62, 6.45, 6.36, 6.36, 6.62, 6.62, 3.79, 3.79, 3.48, 3.78, 4.0, 3.64, 3.88, 3.88, 3.88, 3.72, 3.35, 3.35, 3.35, 3.35, 3.7, 3.87, 3.87, 3.82, 3.54, 3.98, 3.98, 3.87, 3.39, 3.39, 3.13, 3.58, 3.58, 3.98, 3.87, 3.87, 3.98, 3.98, 3.98, 3.98, 3.82, 3.35, 3.09, 3.16, 2.86, 2.86, 2.86, 2.86, 2.22, 2.44, 1.73, 0.54, 0.0, 0.0, 0.53, 1.73, 1.76, 2.48, 4.02, 5.36, 5.06, 5.37, 4.29, 4.29, 5.69, 6.32, 6.01, 6.01, 4.83, 5.1, 6.01, 7.44, 8.43, 8.42, 6.53, 4.83, 3.21, 3.6, 5.67, 8.94, 10.72, 9.76, 4.94, 0.0, -0.89, 0.0, 1.73, 4.71, 7.59, 9.21, 9.84, 9.8, 9.48, 9.48, 9.06, 8.01, 8.05, 6.53, 5.86, 5.95, 5.95, 6.57, 6.36, 6.36, 3.48, 3.48, 3.48, 3.48, 3.78, 3.43, 3.88, 3.88, 3.72, 3.43, 3.72, 3.09, 3.09, 3.35, 3.7, 3.7, 3.7, 3.6, 3.87, 3.98, 3.98, 3.82, 3.39, 3.39, 3.53, 3.58, 3.58, 3.58, 3.53, 3.53, 3.98, 4.02, 3.98, 3.82, 3.39, 3.6, 3.09, 3.43, 3.48, 3.48, 3.48, 3.48, 3.2, 2.4, 1.7, 0.59, 0.0, 0.0, 0.0, 0.59, 1.33, 1.84, 2.51, 2.84, 4.11, 3.91, 4.29, 4.29, 4.74, 5.06, 4.96, 4.5, 5.21, 5.24, 7.21, 7.44, 7.81, 6.53, 5.64, 4.07, 3.36, 2.41, 3.14, 6.47, 10.34, 11.62, 8.0, 2.97, 0.88, 2.6, 5.69, 6.95, 8.27, 8.57, 9.2, 9.48, 9.7, 8.95, 8.18, 7.38, 6.44, 6.36, 5.86, 5.76, 5.7, 5.62, 5.86, 5.86, 3.2, 3.2, 3.48, 3.48, 3.43, 3.43, 3.43, 3.72, 3.72, 3.43, 3.43, 3.16, 3.43, 3.35, 3.7, 4.11, 4.11, 3.7, 3.87, 3.87, 3.82, 3.39, 3.2, 3.39, 3.54, 3.58, 3.58, 3.53, 3.09, 3.13, 3.58, 4.02, 3.98, 3.82, 3.39, 3.07, 3.14, 3.16, 3.16, 3.78, 3.78, 3.48, 3.48, 3.49, 3.49, 2.22, 0.0, -0.53, 0.0, 0.71, 1.88, 2.23, 2.84, 2.23, 1.84, 2.76, 3.0, 4.02, 4.43, 4.29, 3.55, 3.27, 3.45, 5.1, 6.79, 8.0, 6.18, 4.96, 4.2, 3.25, 2.49, 0.79, 0.82, 2.45, 4.85, 7.17, 7.49, 5.62, 4.2, 4.26, 5.76, 3.84, 4.45, 7.9, 8.53, 9.48, 9.08, 7.93, 7.13, 5.8, 5.6, 5.6, 5.93, 5.62, 5.09, 5.09, 5.09, 5.09, 3.2, 3.2, 3.48, 3.48, 3.16, 3.43, 3.43, 3.43, 3.43, 3.43, 3.43, 2.86, 3.43, 3.35, 3.7, 4.11, 4.11, 4.11, 4.11, 3.87, 3.6, 3.2, 3.2, 3.39, 3.98, 3.53, 3.53, 3.53, 3.07, 3.13, 3.58, 3.58, 3.98, 3.82, 3.6, 3.2, 3.14, 3.16, 3.43, 3.43, 3.43, 3.43, 3.43, 4.54, 5.15, 3.78, 0.0, -1.79, 0.0, 1.26, 2.79, 3.43, 3.16, 2.84, 1.84, 1.84, 2.8, 3.76, 3.63, 3.91, 2.64, 2.67, 3.6, 5.53, 6.73, 6.64, 5.76, 4.12, 2.69, 1.68, 1.69, 0.82, 0.0, 0.0, 0.0, 0.79, 3.99, 6.37, 6.28, 4.17, 3.36, 2.6, 4.16, 5.95, 8.85, 8.01, 7.11, 6.4, 5.73, 4.87, 4.81, 4.1, 4.39, 5.2, 5.0, 4.23, 3.61, 3.61, 2.86, 2.86, 2.86, 3.15, 3.16, 3.43, 3.43, 3.43, 3.43, 3.43, 3.43, 2.86, 2.86, 3.09, 3.6, 3.7, 4.11, 3.88, 4.11, 3.6, 3.2, 3.07, 3.39, 3.82, 3.82, 3.39, 3.53, 3.39, 3.07, 3.13, 3.58, 3.58, 3.53, 3.39, 3.2, 3.6, 3.14, 3.09, 3.43, 3.43, 3.43, 3.16, 2.84, 3.14, 3.43, 4.43, 2.0, 0.0, 2.79, 4.55, 4.29, 4.07, 3.48, 2.86, 2.23, 1.6, 1.13, 1.8, 2.76, 2.76, 1.72, 1.73, 3.4, 5.24, 5.59, 5.36, 5.21, 5.1, 2.67, 0.84, 0.89, 2.49, 2.44, 0.8, -0.78, -0.79, 1.59, 4.85, 6.42, 5.45, 3.85, 2.6, 4.19, 5.71, 6.06, 7.11, 5.11, 4.38, 3.64, 2.85, 2.91, 3.25, 2.87, 4.21, 3.68, 3.53, 3.53, 3.53, 2.86, 2.86, 2.86, 3.15, 3.16, 3.43, 3.43, 3.43, 3.43, 3.43, 3.16, 2.86, 2.86, 2.84, 3.6, 3.6, 3.7, 3.88, 3.88, 3.35, 2.79, 3.07, 3.39, 3.39, 3.82, 3.39, 3.39, 3.39, 3.07, 3.13, 3.58, 3.58, 3.53, 3.53, 3.39, 3.6, 3.35, 3.35, 3.72, 3.43, 3.43, 3.16, 2.84, 2.53, 1.88, 1.83, 2.8, 2.84, 4.12, 4.71, 4.11, 3.49, 2.86, 3.15, 2.22, 1.76, 1.27, 1.13, 0.51, 0.96, 0.82, 1.63, 3.4, 4.26, 3.6, 3.6, 3.6, 4.88, 5.21, 2.54, 1.73, 3.49, 4.75, 4.04, 0.79, 0.0, 0.0, 2.39, 4.91, 5.67, 5.11, 5.77, 4.46, 4.45, 3.97, 3.27, 2.23, 2.12, 1.38, 1.45, 1.4, 1.43, 1.43, 1.46, 2.93, 2.82, 2.19, 2.19, 2.86, 2.86, 2.86, 3.15, 2.86, 3.43, 3.43, 3.43, 3.43, 3.16, 3.16, 2.86, 2.6, 2.84, 3.07, 3.2, 3.6, 3.35, 3.35, 2.79, 2.79, 3.07, 3.39, 3.39, 3.39, 3.39, 3.39, 3.39, 4.38, 3.13, 3.58, 3.58, 3.09, 3.09, 3.32, 3.2, 3.35, 3.35, 3.72, 3.43, 3.43, 3.16, 2.51, 2.23, 1.16, 0.59, 1.73, 2.82, 3.49, 3.49, 3.2, 2.86, 2.86, 2.86, 2.44, 2.22, 1.76, 1.27, 0.0, 0.0, 0.0, 1.84, 2.67, 2.4, 2.54, 1.65, 1.84, 2.33, 2.7, 2.7, 3.45, 3.32, 4.72, 4.47, 3.18, 0.8, 0.8, 2.44, 3.25, 5.1, 5.72, 5.71, 5.2, 2.83, 2.28, 1.09, 0.54, 0.0, 0.0, 0.0, 0.0, 0.0, 0.0, 0.0, 1.41, 1.44, 1.39, 1.39, 2.86, 2.86, 2.86, 2.86, 2.86, 3.43, 3.43, 3.43, 3.16, 3.16, 2.86, 2.86, 2.86, 2.22, 2.79, 3.32, 3.07, 2.79, 2.53, 2.53, 3.07, 3.07, 3.39, 3.39, 3.39, 3.39, 3.39, 3.53, 3.53, 4.38, 3.53, 3.53, 3.09, 3.07, 2.91, 3.2, 3.6, 3.6, 3.35, 3.72, 3.43, 3.16, 2.51, 2.23, 1.6, 1.11, 1.11, 1.76, 2.22, 2.48, 2.86, 2.86, 2.86, 2.22, 2.44, 1.94, 1.73, 1.23, 0.57, 0.0, 0.0, 1.84, 2.54, 2.51, 2.67, 1.65, 1.65, 0.84, 1.33, 2.39, 3.49, 3.49, 1.62, 1.57, 2.42, 3.12, 2.47, 2.53, 2.81, 3.58, 4.24, 4.17, 2.91, 2.13, 0.56, 0.0, 0.0, -1.14, -1.62, -1.61, -1.55, -1.41, -1.46, -0.74, -0.71, 0.0, 0.0, 0.0, 2.44, 2.44, 2.86, 2.86, 2.86, 3.16, 3.43, 3.16, 3.16, 3.16, 2.86, 2.86, 2.44, 2.44, 2.79, 3.07, 3.07, 2.79, 2.53, 2.53, 2.68, 3.39, 3.39, 3.39, 3.39, 3.39, 3.39, 3.53, 3.53, 3.53, 3.53, 3.53, 3.09, 3.07, 2.91, 3.32, 3.2, 3.6, 3.6, 3.35, 3.43, 3.16, 2.86, 2.48, 1.27, 0.59, 0.59, 1.13, 1.84, 2.23, 2.51, 2.51, 2.48, 2.22, 2.22, 1.94, 1.73, 1.19, 0.55, 0.0, 0.0, 1.32, 2.66, 2.82, 2.82, 2.51, 2.67, 2.4, 2.46, 2.39, 3.36, 2.6, 1.18, 0.0, 1.6, 4.14, 4.71, 3.17, 2.09, 2.12, 2.12, 2.09, 1.43, 1.46, 0.74, 0.0, 0.0, -1.11, -1.46, -1.5, -1.54, -1.54, -1.39, -1.44, -0.72, -0.72, 0.0, 0.0, 2.22, 2.22, 2.22, 2.86, 2.86, 2.86, 3.16, 2.86, 2.86, 2.86, 2.86, 2.86, 2.2, 2.2, 2.48, 2.79, 2.79, 2.79, 2.53, 2.53, 2.68, 3.39, 3.39, 3.39, 3.39, 3.39, 3.39, 3.53, 3.53, 3.53, 3.53, 3.09, 3.09, 3.07, 2.91, 3.32, 3.2, 3.2, 3.2, 3.6, 3.35, 3.43, 3.48, 2.22, 0.66, 0.0, 0.0, 0.71, 1.9, 2.21, 2.53, 2.51, 2.51, 2.48, 1.76, 1.76, 1.73, 1.19, 0.61, 0.0, 0.0, 1.32, 2.66, 2.82, 2.4, 2.54, 2.67, 2.54, 2.44, 2.47, 3.11, 2.42, 1.16, 0.8, 1.62, 4.1, 5.61, 4.85, 2.43, 0.79, 0.74, 0.75, 1.44, 1.44, 1.44, 0.54, 0.54, 0.0, 0.0, 0.0, 0.0, 0.0, 0.0, 0.0, 0.71, 0.71, 0.0, 0.0, 2.22, 2.22, 2.22, 2.86, 2.86, 2.86, 2.86, 2.86, 2.86, 2.86, 2.86, 2.86, 2.2, 2.2, 2.22, 2.84, 3.35, 3.14, 2.79, 2.79, 3.07, 3.39, 3.39, 3.39, 3.39, 3.39, 3.39, 3.39, 3.53, 3.53, 3.09, 3.09, 3.07, 3.07, 2.91, 2.91, 3.39, 3.39, 3.39, 3.2, 3.14, 3.43, 3.48, 2.22, 0.53, 0.0, 0.0, 0.95, 1.86, 2.68, 3.07, 2.79, 2.51, 2.23, 1.76, 1.76, 1.73, 1.19, 1.19, 0.55, 0.0, 0.57, 1.32, 1.72, 1.73, 2.33, 1.65, 1.67, 1.75, 1.75, 2.6, 2.49, 2.32, 1.65, 1.55, 3.17, 5.41, 5.61, 4.75, 2.85, 2.14, 1.45, 2.15, 2.25, 2.19, 2.14, 2.37, 2.28, 2.28, 2.28, 2.28, 2.28, 1.58, 1.58, 1.42, 1.42, 1.42, 1.42, 2.22, 2.22, 2.22, 2.6, 2.86, 2.86, 2.86, 2.86, 2.86, 2.86, 3.15, 2.86, 2.2, 1.73, 2.22, 2.86, 3.09, 2.84, 2.84, 2.79, 3.2, 3.39, 3.39, 3.39, 3.39, 3.32, 3.32, 3.39, 3.53, 3.53, 3.09, 3.09, 3.07, 3.07, 2.91, 3.39, 3.39, 3.39, 3.39, 3.32, 3.07, 3.14, 3.43, 4.11, 1.58, -0.89, -0.45, 1.34, 3.07, 3.39, 3.07, 2.79, 2.51, 2.51, 1.8, 1.76, 1.57, 1.19, 0.61, 0.55, 0.0, 0.0, 0.0, 0.89, 0.89, 1.2, 0.84, 0.8, 0.85, 0.85, 1.68, 3.39, 3.53, 3.36, 1.6, 1.64, 3.14, 4.71, 4.88, 5.02, 4.31, 3.53, 2.95, 2.95, 2.88, 3.6, 2.87, 2.93, 3.04, 2.22, 2.22, 1.5, 1.6, 0.77, 0.83, 0.0, 0.0, 1.42, 2.22, 2.22, 2.22, 2.22, 2.86, 2.86, 2.86, 2.86, 2.86, 2.86, 2.86, 2.2, 2.2, 2.44, 2.22, 2.86, 3.16, 2.84, 2.84, 2.79, 3.2, 3.2, 3.39, 3.39, 3.32, 2.91, 2.91, 2.97, 3.53, 3.09, 3.09, 3.09, 3.07, 2.91, 2.97, 3.39, 3.39, 3.39, 3.39, 3.39, 3.07, 3.07, 3.07, 4.6, 2.53, 0.0, 0.0, 2.63, 3.87, 3.7, 3.35, 3.14, 2.51, 2.51, 1.8, 1.58, 1.76, 1.19, 0.61, 0.55, 0.0, 0.0, 0.0, 0.89, 0.89, 1.32, 1.14, 0.84, 1.67, 1.67, 2.57, 3.77, 4.81, 4.04, 3.17, 0.86, 0.0, 1.57, 2.89, 4.24, 5.02, 4.39, 3.68, 3.76, 3.68, 3.53, 2.81, 2.25, 2.39, 1.55, 0.78, 0.78, 0.0, 0.0, 0.0, 0.0, -0.7, 0.0, 1.76, 1.76, 2.22, 2.22, 2.86, 2.86, 2.86, 2.86, 2.86, 2.86, 2.44, 2.2, 2.2, 2.44, 2.22, 2.86, 2.86, 2.84, 2.79, 2.79, 3.07, 3.2, 3.39, 3.39, 3.32, 2.91, 2.91, 2.97, 3.09, 3.09, 3.09, 3.09, 2.91, 2.91, 2.97, 3.39, 3.39, 3.39, 3.39, 3.39, 2.91, 2.5, 2.4, 2.68, 3.79, 1.6, 2.23, 3.88, 4.4, 3.88, 3.14, 2.84, 2.51, 2.07, 1.8, 1.8, 1.23, 1.19, 0.61, 0.55, 0.0, 0.0, 0.0, 0.0, 1.18, 1.25, 0.89, 1.75, 2.44, 2.57, 3.32, 3.21, 3.82, 4.89, 5.85, 3.19, 0.0, 0.0, 1.6, 3.66, 5.11, 5.11, 4.39, 3.6, 3.6, 2.81, 2.76, 1.48, 0.76, 0.0, 0.0, 0.0, 0.0, -0.8, -0.8, -0.77, -1.48, -0.7, 1.76, 1.76, 2.22, 2.22, 2.86, 2.86, 2.86, 2.86, 2.86, 2.22, 2.44, 2.2, 2.2, 2.22, 2.22, 2.48, 2.58, 2.84, 2.53, 2.68, 3.07, 3.2, 3.2, 3.32, 3.32, 2.91, 2.91, 3.39, 3.53, 3.09, 3.09, 2.91, 2.91, 2.91, 2.91, 3.39, 3.39, 3.39, 3.39, 3.39, 2.68, 2.5, 2.4, 1.86, 1.9, 2.76, 3.2, 4.07, 3.48, 3.43, 2.84, 2.51, 1.84, 1.8, 1.8, 1.27, 1.11, 1.19, 0.61, 0.55, 0.0, 0.0, 0.0, 0.0, 1.4, 1.25, 1.65, 1.2, 2.54, 3.45, 4.0, 3.49, 2.6, 3.47, 6.1, 6.8, 4.06, 2.49, 2.6, 4.75, 5.63, 5.1, 4.38, 3.66, 2.87, 2.2, 1.45, 0.77, 0.0, 0.0, 0.0, -0.78, -1.55, -1.65, -1.6, -1.64, -1.58, -1.58, 1.76, 1.76, 2.22, 2.22, 2.86, 2.86, 2.86, 2.86, 2.48, 2.22, 2.44, 1.73, 1.73, 1.57, 1.76, 2.23, 2.23, 2.51, 2.51, 2.68, 3.39, 3.2, 3.2, 3.2, 3.39, 3.39, 3.39, 3.39, 3.53, 3.09, 2.91, 2.91, 2.91, 2.91, 2.91, 3.53, 3.53, 3.53, 3.39, 3.32, 2.68, 2.5, 2.15, 1.58, 1.24, 1.16, 2.48, 2.86, 2.86, 2.51, 2.23, 1.84, 1.84, 1.6, 1.6, 1.27, 1.11, 1.08, 0.61, 0.55, 0.0, 0.0, 0.0, 0.0, 1.4, 2.82, 2.54, 2.54, 3.4, 4.12, 4.34, 3.32, 2.49, 2.49, 3.73, 5.85, 7.0, 6.4, 5.6, 5.8, 5.81, 4.95, 4.37, 2.91, 2.13, 1.57, 0.74, 0.0, 0.0, 0.0, -0.74, -1.55, -2.31, -2.45, -1.64, -1.58, -1.58, -1.58, 1.76, 1.76, 2.22, 2.22, 2.48, 2.86, 2.86, 2.48, 2.22, 2.22, 1.73, 1.73, 1.73, 1.08, 1.58, 2.23, 2.51, 2.23, 2.51, 3.2, 3.82, 3.6, 3.6, 3.2, 3.39, 3.39, 3.39, 3.39, 3.39, 3.39, 2.91, 2.91, 2.91, 2.91, 2.97, 3.53, 3.53, 3.53, 3.39, 2.91, 2.68, 2.5, 2.15, 1.9, 1.2, 1.4, 1.84, 1.84, 2.23, 2.23, 1.84, 1.84, 1.84, 1.33, 1.13, 1.27, 1.11, 0.55, 0.55, 0.55, 0.0, 0.0, 0.0, 0.0, 1.32, 2.66, 4.14, 3.8, 4.03, 4.12, 3.45, 1.67, 1.6, 2.49, 2.51, 4.1, 6.35, 8.03, 7.45, 6.4, 6.47, 5.73, 4.3, 2.85, 1.43, 0.72, 0.0, 0.0, 0.0, -0.76, -1.55, -2.31, -2.22, -2.34, -2.44, -3.16, -3.16, -3.16, 1.76, 1.76, 2.22, 2.22, 2.48, 2.48, 2.23, 2.48, 2.22, 2.22, 1.73, 1.73, 1.19, 1.08, 1.8, 2.23, 2.84, 2.23, 2.84, 3.87, 3.7, 3.7, 3.6, 3.6, 3.2, 3.39, 3.39, 3.39, 3.39, 3.39, 3.32, 2.91, 2.91, 2.91, 3.53, 3.53, 3.53, 3.53, 3.32, 2.91, 2.68, 2.5, 2.5, 2.5, 1.61, 1.88, 1.88, 1.84, 1.84, 1.84, 1.84, 1.84, 1.16, 1.33, 1.13, 1.27, 0.57, 0.55, 0.55, 0.55, 0.0, 0.0, 0.0, 0.0, 1.32, 2.66, 2.82, 2.51, 3.4, 2.67, 2.33, 1.75, 1.75, 1.62, 2.41, 4.06, 4.87, 6.66, 7.32, 7.45, 7.2, 7.03, 5.65, 3.64, 2.06, 0.69, 0.0, 0.0, -0.76, -0.78, -1.08, -2.31, -2.41, -3.29, -4.01, -1.6, -1.6, -1.6, 1.76, 1.76, 1.76, 2.22, 2.48, 2.23, 2.23, 2.23, 1.76, 1.76, 1.73, 1.19, 1.19, 1.23, 1.8, 2.84, 2.86, 2.86, 3.43, 4.11, 4.11, 3.7, 3.6, 3.6, 3.6, 3.2, 3.39, 3.39, 3.39, 3.39, 3.39, 2.91, 3.32, 3.39, 3.53, 3.53, 3.53, 3.53, 2.91, 2.91, 2.68, 2.5, 2.5, 2.5, 2.21, 1.88, 2.21, 2.53, 1.84, 1.84, 1.84, 1.61, 1.16, 1.16, 1.33, 0.59, 0.57, 0.55, 0.55, 0.0, 0.0, 0.0, 0.0, 0.0, 0.0, 1.4, 1.4, 0.83, 0.84, 0.84, 0.89, 0.85, 1.75, 2.39, 3.16, 3.42, 4.1, 4.87, 6.4, 7.01, 7.93, 8.2, 7.22, 4.95, 2.81, 1.41, 0.0, 0.0, -0.78, -1.13, -1.22, -2.57, -4.07, -4.92, -2.44, 0.0, 0.0, 0.0, 1.76, 1.76, 1.76, 2.22, 1.76, 1.8, 1.8, 1.8, 1.58, 1.76, 1.73, 1.07, 0.61, 1.11, 2.23, 3.16, 2.86, 2.86, 3.72, 4.11, 4.11, 3.35, 3.35, 3.6, 3.6, 3.6, 3.82, 3.39, 3.39, 3.39, 3.39, 3.39, 3.39, 3.53, 3.53, 3.53, 3.53, 3.39, 2.91, 2.91, 2.68, 2.68, 2.5, 2.5, 2.21, 2.21, 2.21, 2.53, 1.84, 1.84, 1.84, 1.61, 1.16, 1.16, 0.59, 0.59, 0.57, 0.63, 0.0, 0.0, 0.0, 0.0, 0.0, 0.0, 0.0, 0.0, 0.0, 0.0, 1.25, 0.84, 0.89, 1.67, 1.6, 2.39, 2.6, 3.29, 3.32, 4.1, 5.67, 6.31, 7.23, 7.91, 8.92, 7.91, 5.02, 2.18, 0.73, 0.0, 0.0, -0.89, -0.8, -2.44, -3.32, -1.55, 0.0, 2.47, 2.47, 2.47, 1.76, 1.76, 1.76, 1.76, 1.76, 1.58, 1.8, 1.8, 1.58, 1.76, 1.19, 0.54, 0.55, 1.8, 2.84, 2.86, 2.86, 3.43, 3.88, 4.11, 3.7, 3.35, 3.35, 3.6, 3.6, 3.6, 3.6, 3.82, 3.39, 3.39, 3.39, 3.39, 3.39, 3.53, 3.53, 3.53, 3.53, 3.39, 2.91, 2.91, 2.68, 2.68, 2.68, 2.5, 2.21, 2.21, 2.21, 2.53, 1.84, 1.61, 1.61, 1.61, 1.16, 1.16, 0.59, 0.59, 0.57, 0.0, 0.0, 0.0, 0.0, 0.0, 0.0, 0.0, 0.0, 0.0, 1.4, 1.4, 1.25, 1.65, 1.67, 1.67, 1.68, 1.62, 2.49, 2.41, 3.42, 4.06, 5.48, 5.8, 6.31, 7.32, 9.18, 10.23, 8.0, 3.66, 2.21, 1.47, 2.23, 0.76, 0.0, -0.89, 0.0, 0.95, 2.6, 5.82, 5.82, 5.82, 1.23, 1.23, 1.76, 1.76, 1.58, 1.58, 1.8, 1.27, 1.11, 1.23, 0.54, 0.54, 1.08, 2.23, 2.84, 2.58, 3.16, 3.43, 3.72, 3.35, 3.35, 3.35, 3.35, 3.35, 3.6, 3.6, 3.6, 3.6, 3.2, 3.2, 3.39, 3.39, 3.39, 3.39, 3.53, 3.53, 3.53, 3.39, 3.32, 2.91, 2.68, 2.68, 2.68, 2.5, 2.21, 2.21, 2.53, 2.21, 1.88, 1.61, 1.61, 1.61, 1.16, 1.16, 0.59, 0.59, 0.0, 0.0, 0.0, 0.0, 0.0, 0.0, 0.0, 0.0, 0.0, 0.0, 0.89, 1.84, 1.73, 1.65, 1.58, 0.85, 1.68, 1.76, 1.62, 2.41, 3.29, 4.17, 5.6, 6.43, 6.43, 7.13, 8.5, 9.89, 8.6, 5.81, 4.37, 5.04, 5.18, 3.61, 1.44, 0.89, 0.89, 2.67, 4.29, 7.21, 7.21, 7.21, 1.08, 1.08, 1.23, 1.23, 1.11, 1.11, 1.11, 1.11, 1.11, 0.55, 0.54, 0.54, 1.23, 2.23, 2.51, 2.51, 2.84, 3.09, 3.35, 3.35, 3.35, 3.14, 3.35, 3.35, 3.35, 3.35, 3.6, 3.6, 3.2, 3.2, 3.2, 3.2, 3.39, 3.39, 3.53, 3.53, 3.39, 3.39, 3.32, 3.32, 3.07, 2.68, 2.68, 2.5, 2.21, 2.21, 2.21, 2.21, 1.88, 1.61, 1.61, 1.61, 1.16, 0.59, 0.59, 0.59, 0.57, 0.0, 0.0, 0.0, 0.0, 0.0, 0.0, 0.0, 0.0, 0.0, 0.88, 1.84, 2.51, 1.84, 1.65, 1.75, 0.85, 0.85, 1.62, 2.49, 3.16, 4.68, 5.72, 5.6, 5.6, 5.93, 6.65, 7.08, 6.57, 5.09, 5.28, 5.18, 5.09, 4.23, 3.53, 2.23, 1.58, 2.67, 4.29, 7.21, 7.21, 7.21, 1.08, 1.08, 1.23, 1.23, 1.11, 1.11, 1.11, 0.57, 0.57, 0.55, 0.0, 0.55, 1.11, 1.8, 2.23, 2.51, 2.84, 3.14, 3.35, 3.35, 3.14, 3.14, 3.14, 3.14, 3.35, 3.35, 3.35, 3.6, 3.6, 3.2, 3.2, 3.2, 3.2, 3.39, 3.39, 3.09, 2.91, 3.32, 3.32, 3.32, 3.07, 2.68, 2.68, 2.5, 2.21, 2.21, 2.21, 2.21, 1.88, 1.61, 1.61, 1.16, 1.16, 0.59, 0.59, 0.59, 0.59, 0.0, 0.0, 0.0, 0.0, 0.0, 0.0, 0.0, 0.0, 0.0, 0.0, 0.96, 1.84, 2.82, 3.4, 3.27, 2.54, 2.54, 1.68, 3.36, 3.95, 5.0, 5.2, 5.72, 5.72, 4.87, 4.75, 4.81, 4.37, 4.4, 4.6, 4.31, 3.46, 3.61, 3.69, 2.97, 3.15, 2.67, 4.29, 5.82, 5.82, 5.82, 1.08, 1.08, 1.23, 1.23, 1.11, 1.11, 0.57, 0.57, 0.57, 0.0, 0.0, 0.55, 1.11, 1.8, 2.23, 2.23, 2.84, 3.14, 3.14, 3.14, 3.14, 3.14, 3.14, 3.14, 3.35, 3.35, 3.35, 3.35, 3.6, 3.6, 3.6, 3.6, 3.2, 3.07, 3.32, 2.91, 2.91, 2.91, 2.91, 2.68, 2.68, 2.68, 2.5, 2.5, 2.21, 2.21, 2.21, 2.21, 1.88, 1.84, 1.16, 1.16, 0.61, 0.61, 0.51, 0.51, 0.0, 0.0, 0.0, 0.0, 0.0, 0.0, 0.0, 0.0, 0.0, 0.0, 0.0, 0.0, 1.84, 2.64, 3.55, 3.4, 3.27, 4.26, 3.45, 4.2, 4.92, 5.14, 4.8, 5.0, 4.68, 4.87, 4.06, 3.2, 3.58, 3.76, 3.78, 2.89, 2.89, 3.69, 4.5, 4.31, 4.07, 3.45, 3.72, 5.21, 5.21, 5.21, 0.55, 0.55, 1.08, 1.23, 0.57, 0.57, 0.57, 0.0, 0.0, 0.0, 0.0, 0.55, 1.11, 1.8, 2.23, 2.23, 2.23, 2.79, 2.79, 3.14, 3.14, 3.14, 3.35, 3.35, 3.35, 3.35, 3.35, 3.35, 3.35, 3.6, 3.6, 3.6, 3.35, 3.07, 3.07, 2.91, 2.91, 2.91, 2.91, 2.68, 2.68, 2.5, 2.5, 2.5, 2.5, 2.21, 2.21, 1.88, 1.88, 1.61, 1.16, 0.61, 0.53, 0.61, 0.0, 0.0, 0.0, 0.0, 0.0, 0.0, 0.0, 0.0, 0.0, 0.0, 0.0, 0.0, 0.0, 0.0, 0.88, 0.89, 1.84, 1.73, 3.27, 4.12, 4.12, 4.96, 5.06, 4.92, 4.8, 4.13, 4.8, 4.87, 4.07, 4.91, 4.37, 2.95, 3.06, 3.06, 4.2, 5.18, 5.09, 5.86, 5.0, 4.4, 3.72, 5.21, 5.21, 5.21, 0.55, 0.55, 0.55, 0.63, 0.57, 0.57, 0.0, 0.0, 0.0, 0.0, 0.0, 0.55, 1.11, 1.8, 1.8, 2.23, 2.23, 2.23, 2.23, 2.79, 3.14, 3.09, 3.43, 3.64, 3.88, 3.88, 3.88, 3.72, 3.72, 3.72, 3.35, 3.35, 3.35, 3.14, 3.07, 3.07, 2.91, 2.91, 2.91, 2.68, 2.5, 2.5, 2.5, 2.5, 2.5, 2.21, 2.21, 1.88, 1.88, 1.61, 1.16, 1.16, 0.65, 0.65, 0.53, 0.0, 0.0, 0.0, 0.0, 0.0, 0.0, 0.0, 0.0, 0.0, 0.0, 0.0, 0.0, 0.0, 0.0, 0.0, 0.0, 0.89, 1.75, 3.45, 3.45, 3.45, 4.2, 4.07, 4.92, 4.8, 4.8, 4.87, 5.62, 6.37, 6.42, 4.01, 3.45, 4.34, 5.04, 5.95, 5.86, 5.0, 4.87, 4.8, 4.42, 4.84, 4.84, 4.84, 0.55, 0.55, 0.55, 0.55, 0.55, 0.0, 0.0, 0.0, 0.0, 0.0, 0.0, 0.55, 1.11, 1.58, 1.8, 1.84, 1.84, 2.23, 2.84, 2.84, 3.43, 3.43, 4.0, 4.0, 4.0, 4.0, 4.0, 4.0, 3.88, 3.72, 3.72, 3.35, 3.35, 3.14, 2.79, 3.07, 3.07, 2.68, 2.68, 2.5, 2.5, 2.5, 2.5, 2.5, 2.5, 2.21, 2.21, 1.88, 1.88, 1.88, 1.16, 1.16, 0.65, 0.65, 0.65, 0.0, 0.0, 0.0, 0.0, 0.0, 0.0, 0.0, 0.0, 0.0, 0.0, 0.0, -0.65, 0.0, 0.0, 0.0, 0.0, 0.89, 0.84, 2.54, 2.69, 2.69, 2.69, 3.49, 4.07, 3.95, 4.8, 5.72, 5.86, 7.15, 7.22, 5.67, 4.5, 5.04, 4.96, 5.09, 5.0, 5.0, 5.0, 4.87, 4.34, 5.21, 5.21, 5.21, 0.55, 0.55, 0.55, 0.55, 0.55, 0.0, 0.0, 0.0, 0.0, 0.0, 0.0, 0.0, 0.57, 1.11, 1.11, 1.8, 2.23, 2.84, 3.43, 3.43, 4.0, 4.07, 4.07, 4.29, 4.55, 4.55, 4.37, 4.0, 4.0, 3.43, 3.72, 3.72, 3.35, 3.14, 2.79, 2.79, 3.07, 2.68, 2.5, 2.5, 2.5, 2.5, 2.5, 2.5, 2.21, 2.21, 1.88, 1.88, 1.88, 1.61, 1.16, 1.16, 0.53, 0.65, 0.65, 0.65, 0.0, 0.0, 0.0, 0.0, 0.0, 0.0, 0.0, 0.0, -0.59, -0.61, -0.65, -0.71, -1.24, -0.96, 0.0, 0.0, 0.89, 2.67, 3.27, 3.45, 3.27, 2.57, 3.21, 4.07, 5.0, 5.06, 4.81, 5.67, 6.37, 5.67, 5.3, 5.28, 5.18, 4.31, 4.5, 5.0, 5.2, 5.06, 5.06, 5.49, 5.49, 5.49, 0.0, 0.0, 0.55, 0.0, 0.0, 0.0, 0.0, 0.0, 0.0, 0.0, 0.0, 0.0, 0.63, 1.11, 1.11, 1.8, 2.48, 2.86, 3.48, 4.07, 4.07, 4.07, 4.65, 4.65, 4.65, 4.65, 4.29, 4.07, 4.0, 4.0, 3.43, 3.43, 3.09, 3.14, 3.14, 2.79, 2.79, 2.79, 2.5, 2.5, 2.5, 2.5, 2.5, 2.21, 1.88, 1.88, 1.88, 1.88, 1.61, 1.61, 1.16, 1.16, 0.61, 0.53, 0.53, 0.53, 0.0, 0.0, 0.0, 0.0, 0.0, 0.0, 0.0, 0.0, -0.59, -0.61, -1.2, -1.24, -1.61, -1.83, 0.0, 0.0, 1.84, 2.51, 2.67, 3.6, 3.27, 3.27, 3.32, 4.25, 4.8, 4.17, 3.96, 4.04, 4.75, 5.67, 5.72, 5.18, 4.87, 4.5, 4.5, 5.0, 5.2, 5.72, 5.41, 4.95, 4.95, 4.95, 0.0, 0.0, 0.0, 0.0, 0.0, 0.0, 0.0, -0.54, -0.54, 0.0, 0.0, 0.0, 0.55, 0.55, 1.23, 2.22, 2.86, 3.2, 3.49, 3.79, 4.11, 4.37, 4.37, 4.37, 4.65, 4.65, 4.07, 4.07, 4.07, 3.73, 3.43, 3.43, 3.09, 2.84, 3.14, 2.79, 2.79, 2.53, 2.53, 2.21, 2.21, 2.21, 2.21, 1.88, 1.88, 1.88, 1.88, 1.61, 1.61, 1.61, 1.16, 1.16, 0.61, 0.61, 0.53, 0.53, 0.0, 0.0, 0.0, 0.0, 0.0, 0.0, 0.0, 0.0, -0.59, -0.59, -1.16, -1.2, -1.88, -1.84, -0.57, 0.0, 1.84, 1.84, 2.51, 2.67, 3.27, 3.45, 3.32, 4.07, 4.13, 3.29, 3.23, 3.17, 3.98, 4.91, 5.6, 5.09, 5.09, 4.5, 5.09, 5.0, 5.2, 5.72, 5.72, 5.21, 5.21, 5.21, 0.0, 0.0, 0.0, 0.0, 0.0, 0.0, 0.0, -0.59, -0.54, 0.0, 0.0, 0.0, 0.54, 1.19, 1.73, 2.2, 2.86, 3.49, 3.49, 4.11, 4.11, 4.37, 4.37, 4.37, 4.37, 4.65, 4.07, 4.07, 4.07, 3.48, 3.48, 3.43, 3.16, 2.84, 2.84, 2.84, 2.23, 2.53, 2.53, 2.53, 2.53, 2.21, 1.88, 1.88, 1.88, 1.88, 1.61, 1.61, 1.61, 1.16, 1.33, 1.33, 0.61, 0.61, 0.61, 0.53, 0.0, 0.0, 0.0, 0.0, 0.0, 0.0, 0.0, 0.0, -0.59, -0.59, -1.16, -1.4, -1.88, -1.88, -1.13, 0.0, 0.82, 1.4, 1.84, 1.73, 2.54, 2.69, 2.44, 2.35, 3.25, 3.29, 3.11, 3.25, 3.95, 5.62, 5.8, 5.86, 5.09, 5.09, 5.09, 5.3, 5.77, 5.99, 5.89, 5.18, 5.18, 5.18, 0.0, 0.0, 0.0, 0.0, 0.0, 0.0, 0.0, -0.59, -0.59, 0.0, 0.0, 0.0, 0.59, 1.16, 1.7, 2.4, 2.84, 3.49, 3.49, 3.83, 3.83, 4.43, 4.71, 4.37, 4.11, 4.11, 3.79, 4.07, 3.79, 3.48, 3.48, 3.16, 3.16, 2.84, 2.84, 2.84, 2.51, 2.23, 2.23, 2.23, 2.23, 2.23, 1.84, 1.84, 1.61, 1.61, 1.61, 1.61, 1.33, 1.33, 1.13, 1.13, 0.59, 0.61, 0.61, 0.0, 0.0, 0.0, 0.0, 0.0, 0.0, 0.0, 0.0, 0.0, 0.0, -0.59, -1.13, -1.16, -1.88, -1.88, -1.88, -1.16, 0.0, 0.0, 0.89, 0.83, 0.84, 1.75, 1.67, 1.75, 1.68, 2.41, 3.19, 3.87, 4.76, 5.73, 6.31, 6.56, 5.51, 5.86, 5.86, 5.63, 5.54, 5.77, 5.1, 5.0, 5.0, 5.0, 0.0, 0.0, 0.0, 0.0, 0.0, 0.0, 0.0, -0.59, -0.59, 0.0, 0.0, 0.0, 0.59, 1.16, 1.7, 2.4, 2.84, 3.49, 3.49, 3.83, 3.83, 4.43, 4.71, 4.37, 4.11, 4.11, 3.79, 4.07, 3.79, 3.48, 3.48, 3.16, 3.16, 2.84, 2.84, 2.84, 2.51, 2.23, 2.23, 2.23, 2.23, 2.23, 1.84, 1.84, 1.61, 1.61, 1.61, 1.61, 1.33, 1.33, 1.13, 1.13, 0.59, 0.61, 0.61, 0.0, 0.0, 0.0, 0.0, 0.0, 0.0, 0.0, 0.0, 0.0, 0.0, -0.59, -1.13, -1.16, -1.88, -1.88, -1.88, -1.16, 0.0, 0.0, 0.89, 0.83, 1.75, 1.75, 1.67, 1.75, 1.68, 2.49, 3.29, 3.96, 4.71, 6.4, 7.13, 7.25, 6.79, 6.56, 6.33, 5.51, 5.51, 5.51, 4.75, 4.3, 4.3, 4.3]}]